Wetterdaten: Sonntag, 21.05.2017
Datum Zeit Temp. Aussen Temp. o. S. +5cm Feuchte Auss BlattFeu 1 Luftdruck Regen Sonnenschein Regendauer Solar Windben Empfang
21.05.2017 00:00 11,5 C 10,6 C 8,3 C 83 % 0 lf 1024,5 hPa 0,0 l/m 0 min 0 min 0 W/m 2,1 km/h (1 Bft) 97,87 %
21.05.2017 00:02 11,4 C 10,6 C 8,3 C 83 % 0 lf 1024,5 hPa 0,0 l/m 0 min 0 min 0 W/m 4,2 km/h (1 Bft) 95,45 %
21.05.2017 00:04 11,4 C 10,6 C 8,3 C 83 % 0 lf 1024,6 hPa 0,0 l/m 0 min 0 min 0 W/m 2,1 km/h (1 Bft) 95,74 %
21.05.2017 00:06 11,3 C 10,0 C 8,3 C 83 % 0 lf 1024,7 hPa 0,0 l/m 0 min 0 min 0 W/m 2,1 km/h (1 Bft) 100,00 %
21.05.2017 00:10 11,3 C 10,0 C 8,3 C 84 % 0 lf 1024,6 hPa 0,0 l/m 0 min 0 min 0 W/m 4,2 km/h (1 Bft) 100,00 %
21.05.2017 00:12 11,2 C 10,0 C 8,3 C 84 % 0 lf 1024,7 hPa 0,0 l/m 0 min 0 min 0 W/m 2,1 km/h (1 Bft) 97,87 %
21.05.2017 00:14 11,2 C 10,0 C 8,3 C 84 % 0 lf 1024,7 hPa 0,0 l/m 0 min 0 min 0 W/m 2,1 km/h (1 Bft) 97,83 %
21.05.2017 00:16 11,1 C 10,0 C 7,8 C 84 % 0 lf 1024,7 hPa 0,0 l/m 0 min 0 min 0 W/m 2,1 km/h (1 Bft) 100,00 %
21.05.2017 00:18 11,1 C 10,0 C 7,8 C 84 % 0 lf 1024,7 hPa 0,0 l/m 0 min 0 min 0 W/m 4,2 km/h (1 Bft) 95,74 %
21.05.2017 00:20 11,0 C 10,0 C 7,8 C 84 % 0 lf 1024,7 hPa 0,0 l/m 0 min 0 min 0 W/m 6,3 km/h (2 Bft) 100,00 %
21.05.2017 00:22 11,0 C 10,0 C 7,8 C 84 % 0 lf 1024,8 hPa 0,0 l/m 0 min 0 min 0 W/m 4,2 km/h (1 Bft) 100,00 %
21.05.2017 00:24 10,9 C 10,6 C 7,8 C 84 % 0 lf 1024,8 hPa 0,0 l/m 0 min 0 min 0 W/m 4,2 km/h (1 Bft) 100,00 %
21.05.2017 00:26 10,9 C 10,6 C 7,8 C 84 % 0 lf 1024,8 hPa 0,0 l/m 0 min 0 min 0 W/m 6,3 km/h (2 Bft) 100,00 %
21.05.2017 00:28 10,8 C 10,6 C 7,8 C 84 % 0 lf 1024,7 hPa 0,0 l/m 0 min 0 min 0 W/m 4,2 km/h (1 Bft) 100,00 %
21.05.2017 00:30 10,8 C 10,6 C 7,8 C 84 % 0 lf 1024,8 hPa 0,0 l/m 0 min 0 min 0 W/m 4,2 km/h (1 Bft) 100,00 %
21.05.2017 00:32 10,8 C 10,6 C 7,8 C 85 % 0 lf 1024,8 hPa 0,0 l/m 0 min 0 min 0 W/m 4,2 km/h (1 Bft) 97,87 %
21.05.2017 00:34 10,7 C 10,6 C 8,3 C 85 % 0 lf 1024,8 hPa 0,0 l/m 0 min 0 min 0 W/m 4,2 km/h (1 Bft) 97,87 %
21.05.2017 00:36 10,7 C 10,6 C 8,3 C 85 % 0 lf 1024,8 hPa 0,0 l/m 0 min 0 min 0 W/m 4,2 km/h (1 Bft) 94,29 %
21.05.2017 00:38 10,7 C 10,6 C 8,3 C 85 % 0 lf 1024,8 hPa 0,0 l/m 0 min 0 min 0 W/m 4,2 km/h (1 Bft) 100,00 %
21.05.2017 00:40 10,7 C 10,6 C 8,3 C 85 % 0 lf 1024,8 hPa 0,0 l/m 0 min 0 min 0 W/m 6,3 km/h (2 Bft) 100,00 %
21.05.2017 00:42 10,7 C 10,6 C 8,3 C 85 % 0 lf 1024,9 hPa 0,0 l/m 0 min 0 min 0 W/m 6,3 km/h (2 Bft) 100,00 %
21.05.2017 00:44 10,6 C 10,6 C 8,3 C 85 % 0 lf 1024,9 hPa 0,0 l/m 0 min 0 min 0 W/m 6,3 km/h (2 Bft) 97,87 %
21.05.2017 00:46 10,6 C 10,6 C 8,3 C 85 % 0 lf 1024,8 hPa 0,0 l/m 0 min 0 min 0 W/m 6,3 km/h (2 Bft) 95,74 %
21.05.2017 00:48 10,6 C 10,6 C 8,3 C 85 % 0 lf 1024,9 hPa 0,0 l/m 0 min 0 min 0 W/m 4,2 km/h (1 Bft) 97,87 %
21.05.2017 00:50 10,6 C 10,6 C 8,3 C 85 % 0 lf 1024,9 hPa 0,0 l/m 0 min 0 min 0 W/m 8,4 km/h (2 Bft) 97,83 %
21.05.2017 00:52 10,6 C 10,6 C 8,3 C 85 % 0 lf 1024,9 hPa 0,0 l/m 0 min 0 min 0 W/m 6,3 km/h (2 Bft) 97,14 %
21.05.2017 00:54 10,6 C 10,6 C 8,3 C 86 % 0 lf 1025,0 hPa 0,0 l/m 0 min 0 min 0 W/m 6,3 km/h (2 Bft) 97,87 %
21.05.2017 00:56 10,6 C 10,6 C 8,3 C 85 % 0 lf 1024,9 hPa 0,0 l/m 0 min 0 min 0 W/m 6,3 km/h (2 Bft) 95,74 %
21.05.2017 00:58 10,6 C 10,6 C 8,3 C 85 % 0 lf 1024,9 hPa 0,0 l/m 0 min 0 min 0 W/m 4,2 km/h (1 Bft) 95,74 %
21.05.2017 01:00 10,6 C 10,6 C 8,3 C 85 % 0 lf 1024,9 hPa 0,0 l/m 0 min 0 min 0 W/m 4,2 km/h (1 Bft) 97,87 %
21.05.2017 01:02 10,6 C 10,6 C 8,3 C 85 % 0 lf 1024,9 hPa 0,0 l/m 0 min 0 min 0 W/m 4,2 km/h (1 Bft) 96,55 %
21.05.2017 01:04 10,6 C 10,6 C 8,3 C 86 % 0 lf 1024,9 hPa 0,0 l/m 0 min 0 min 0 W/m 4,2 km/h (1 Bft) 97,87 %
21.05.2017 01:06 10,6 C 10,6 C 8,3 C 86 % 0 lf 1024,9 hPa 0,0 l/m 0 min 0 min 0 W/m 6,3 km/h (2 Bft) 93,62 %
21.05.2017 01:08 10,6 C 10,6 C 8,3 C 86 % 0 lf 1024,9 hPa 0,0 l/m 0 min 0 min 0 W/m 6,3 km/h (2 Bft) 87,23 %
21.05.2017 01:10 10,6 C 10,6 C 7,8 C 86 % 0 lf 1025,0 hPa 0,0 l/m 0 min 0 min 0 W/m 4,2 km/h (1 Bft) 97,87 %
21.05.2017 01:12 10,6 C 10,6 C 7,8 C 86 % 0 lf 1025,0 hPa 0,0 l/m 0 min 0 min 0 W/m 4,2 km/h (1 Bft) 94,29 %
21.05.2017 01:14 10,6 C 10,6 C 7,8 C 86 % 0 lf 1025,0 hPa 0,0 l/m 0 min 0 min 0 W/m 4,2 km/h (1 Bft) 97,87 %
21.05.2017 01:16 10,6 C 10,6 C 7,8 C 86 % 0 lf 1025,0 hPa 0,0 l/m 0 min 0 min 0 W/m 4,2 km/h (1 Bft) 94,83 %
21.05.2017 01:18 10,6 C 10,6 C 7,8 C 86 % 0 lf 1025,0 hPa 0,0 l/m 0 min 0 min 0 W/m 4,2 km/h (1 Bft) 95,74 %
21.05.2017 01:20 10,5 C 10,6 C 7,8 C 86 % 0 lf 1025,0 hPa 0,0 l/m 0 min 0 min 0 W/m 6,3 km/h (2 Bft) 97,87 %
21.05.2017 01:22 10,5 C 10,0 C 7,8 C 86 % 0 lf 1024,9 hPa 0,0 l/m 0 min 0 min 0 W/m 4,2 km/h (1 Bft) 97,14 %
21.05.2017 01:24 10,5 C 10,0 C 7,8 C 86 % 0 lf 1025,0 hPa 0,0 l/m 0 min 0 min 0 W/m 4,2 km/h (1 Bft) 97,87 %
21.05.2017 01:26 10,5 C 10,0 C 7,8 C 86 % 0 lf 1025,0 hPa 0,0 l/m 0 min 0 min 0 W/m 4,2 km/h (1 Bft) 93,62 %
21.05.2017 01:28 10,5 C 10,0 C 7,8 C 86 % 0 lf 1025,0 hPa 0,0 l/m 0 min 0 min 0 W/m 4,2 km/h (1 Bft) 93,48 %
21.05.2017 01:30 10,5 C 10,0 C 7,8 C 86 % 0 lf 1025,0 hPa 0,0 l/m 0 min 0 min 0 W/m 6,3 km/h (2 Bft) 94,92 %
21.05.2017 01:32 10,4 C 10,0 C 7,8 C 86 % 0 lf 1025,0 hPa 0,0 l/m 0 min 0 min 0 W/m 2,1 km/h (1 Bft) 100,00 %
21.05.2017 01:34 10,4 C 10,0 C 7,8 C 86 % 0 lf 1025,0 hPa 0,0 l/m 0 min 0 min 0 W/m 2,1 km/h (1 Bft) 97,87 %
21.05.2017 01:36 10,4 C 10,0 C 7,8 C 86 % 0 lf 1025,0 hPa 0,0 l/m 0 min 0 min 0 W/m 6,3 km/h (2 Bft) 94,83 %
21.05.2017 01:38 10,4 C 9,4 C 7,8 C 86 % 0 lf 1025,1 hPa 0,0 l/m 0 min 0 min 0 W/m 4,2 km/h (1 Bft) 97,87 %
21.05.2017 01:40 10,4 C 9,4 C 7,8 C 86 % 0 lf 1025,1 hPa 0,0 l/m 0 min 0 min 0 W/m 2,1 km/h (1 Bft) 97,87 %
21.05.2017 01:42 10,4 C 9,4 C 7,8 C 86 % 0 lf 1025,1 hPa 0,0 l/m 0 min 0 min 0 W/m 0,0 km/h (0 Bft) 97,87 %
21.05.2017 01:44 10,4 C 9,4 C 7,8 C 86 % 0 lf 1025,0 hPa 0,0 l/m 0 min 0 min 0 W/m 2,1 km/h (1 Bft) 97,87 %
21.05.2017 01:46 10,3 C 9,4 C 7,8 C 86 % 1 lf 1025,1 hPa 0,0 l/m 0 min 0 min 0 W/m 0,0 km/h (0 Bft) 95,74 %
21.05.2017 01:48 10,3 C 9,4 C 7,2 C 86 % 1 lf 1025,1 hPa 0,0 l/m 0 min 0 min 0 W/m 0,0 km/h (0 Bft) 95,65 %
21.05.2017 01:50 10,3 C 8,9 C 7,2 C 86 % 1 lf 1025,1 hPa 0,0 l/m 0 min 0 min 0 W/m 0,0 km/h (0 Bft) 95,74 %
21.05.2017 01:52 10,3 C 8,9 C 7,2 C 86 % 1 lf 1025,1 hPa 0,0 l/m 0 min 0 min 0 W/m 0,0 km/h (0 Bft) 93,62 %
21.05.2017 01:54 10,2 C 8,9 C 7,2 C 86 % 1 lf 1025,2 hPa 0,0 l/m 0 min 0 min 0 W/m 0,0 km/h (0 Bft) 95,74 %
21.05.2017 01:56 10,2 C 8,9 C 7,2 C 86 % 1 lf 1025,2 hPa 0,0 l/m 0 min 0 min 0 W/m 6,3 km/h (2 Bft) 95,74 %
21.05.2017 01:58 10,2 C 8,9 C 7,2 C 86 % 1 lf 1025,3 hPa 0,0 l/m 0 min 0 min 0 W/m 6,3 km/h (2 Bft) 93,62 %
21.05.2017 02:00 10,2 C 8,9 C 7,2 C 86 % 1 lf 1025,2 hPa 0,0 l/m 0 min 0 min 0 W/m 4,2 km/h (1 Bft) 86,96 %
21.05.2017 02:02 10,1 C 8,9 C 7,2 C 86 % 1 lf 1025,2 hPa 0,0 l/m 0 min 0 min 0 W/m 4,2 km/h (1 Bft) 91,49 %
21.05.2017 02:04 10,1 C 8,3 C 7,2 C 86 % 1 lf 1025,2 hPa 0,0 l/m 0 min 0 min 0 W/m 4,2 km/h (1 Bft) 93,62 %
21.05.2017 02:06 10,1 C 8,3 C 7,2 C 86 % 1 lf 1025,2 hPa 0,0 l/m 0 min 0 min 0 W/m 4,2 km/h (1 Bft) 87,23 %
21.05.2017 02:08 10,0 C 8,3 C 7,2 C 86 % 1 lf 1025,2 hPa 0,0 l/m 0 min 0 min 0 W/m 6,3 km/h (2 Bft) 89,36 %
21.05.2017 02:10 10,0 C 8,3 C 7,2 C 86 % 1 lf 1025,2 hPa 0,0 l/m 0 min 0 min 0 W/m 6,3 km/h (2 Bft) 95,74 %
21.05.2017 02:12 9,9 C 8,3 C 7,2 C 86 % 1 lf 1025,2 hPa 0,0 l/m 0 min 0 min 0 W/m 6,3 km/h (2 Bft) 94,29 %
21.05.2017 02:14 9,9 C 8,9 C 7,2 C 86 % 1 lf 1025,2 hPa 0,0 l/m 0 min 0 min 0 W/m 6,3 km/h (2 Bft) 93,10 %
21.05.2017 02:16 9,9 C 8,3 C 7,2 C 86 % 1 lf 1025,2 hPa 0,0 l/m 0 min 0 min 0 W/m 4,2 km/h (1 Bft) 93,62 %
21.05.2017 02:18 9,9 C 8,9 C 7,2 C 86 % 1 lf 1025,2 hPa 0,0 l/m 0 min 0 min 0 W/m 8,4 km/h (2 Bft) 89,36 %
21.05.2017 02:20 9,8 C 8,9 C 7,2 C 86 % 1 lf 1025,2 hPa 0,0 l/m 0 min 0 min 0 W/m 8,4 km/h (2 Bft) 95,74 %
21.05.2017 02:22 9,8 C 9,4 C 7,2 C 86 % 1 lf 1025,3 hPa 0,0 l/m 0 min 0 min 0 W/m 8,4 km/h (2 Bft) 93,48 %
21.05.2017 02:24 9,8 C 9,4 C 7,2 C 87 % 1 lf 1025,3 hPa 0,0 l/m 0 min 0 min 0 W/m 8,4 km/h (2 Bft) 93,62 %
21.05.2017 02:26 9,8 C 9,4 C 7,2 C 87 % 1 lf 1025,3 hPa 0,0 l/m 0 min 0 min 0 W/m 6,3 km/h (2 Bft) 97,87 %
21.05.2017 02:28 9,8 C 9,4 C 7,8 C 87 % 1 lf 1025,3 hPa 0,0 l/m 0 min 0 min 0 W/m 4,2 km/h (1 Bft) 91,49 %
21.05.2017 02:30 9,7 C 9,4 C 7,2 C 87 % 1 lf 1025,3 hPa 0,0 l/m 0 min 0 min 0 W/m 6,3 km/h (2 Bft) 93,62 %
21.05.2017 02:32 9,7 C 9,4 C 7,2 C 88 % 1 lf 1025,2 hPa 0,0 l/m 0 min 0 min 0 W/m 4,2 km/h (1 Bft) 97,83 %
21.05.2017 02:34 9,7 C 9,4 C 7,2 C 88 % 1 lf 1025,2 hPa 0,0 l/m 0 min 0 min 0 W/m 2,1 km/h (1 Bft) 93,48 %
21.05.2017 02:36 9,7 C 9,4 C 7,2 C 88 % 1 lf 1025,2 hPa 0,0 l/m 0 min 0 min 0 W/m 4,2 km/h (1 Bft) 91,49 %
21.05.2017 02:38 9,7 C 9,4 C 7,2 C 88 % 1 lf 1025,2 hPa 0,0 l/m 0 min 0 min 0 W/m 6,3 km/h (2 Bft) 95,74 %
21.05.2017 02:40 9,7 C 9,4 C 7,2 C 88 % 1 lf 1025,2 hPa 0,0 l/m 0 min 0 min 0 W/m 4,2 km/h (1 Bft) 93,62 %
21.05.2017 02:42 9,6 C 8,9 C 7,2 C 88 % 1 lf 1025,3 hPa 0,0 l/m 0 min 0 min 0 W/m 4,2 km/h (1 Bft) 93,62 %
21.05.2017 02:44 9,6 C 8,9 C 7,2 C 88 % 1 lf 1025,2 hPa 0,0 l/m 0 min 0 min 0 W/m 2,1 km/h (1 Bft) 91,49 %
21.05.2017 02:46 9,6 C 8,9 C 7,2 C 88 % 1 lf 1025,2 hPa 0,0 l/m 0 min 0 min 0 W/m 2,1 km/h (1 Bft) 97,14 %
21.05.2017 02:48 9,6 C 8,9 C 7,2 C 88 % 1 lf 1025,2 hPa 0,0 l/m 0 min 0 min 0 W/m 2,1 km/h (1 Bft) 93,62 %
21.05.2017 02:50 9,6 C 8,9 C 7,2 C 89 % 1 lf 1025,2 hPa 0,0 l/m 0 min 0 min 0 W/m 4,2 km/h (1 Bft) 94,83 %
21.05.2017 02:52 9,6 C 8,9 C 7,2 C 89 % 1 lf 1025,3 hPa 0,0 l/m 0 min 0 min 0 W/m 4,2 km/h (1 Bft) 91,43 %
21.05.2017 02:54 9,5 C 8,9 C 7,2 C 89 % 1 lf 1025,3 hPa 0,0 l/m 0 min 0 min 0 W/m 2,1 km/h (1 Bft) 96,61 %
21.05.2017 02:56 9,5 C 8,9 C 6,7 C 89 % 1 lf 1025,3 hPa 0,0 l/m 0 min 0 min 0 W/m 0,0 km/h (0 Bft) 85,71 %
21.05.2017 02:58 9,5 C 8,3 C 6,7 C 89 % 1 lf 1025,3 hPa 0,0 l/m 0 min 0 min 0 W/m 0,0 km/h (0 Bft) 93,62 %
21.05.2017 03:00 9,4 C 8,3 C 6,7 C 89 % 2 lf 1025,3 hPa 0,0 l/m 0 min 0 min 0 W/m 0,0 km/h (0 Bft) 94,83 %
21.05.2017 03:02 9,4 C 8,3 C 6,7 C 89 % 2 lf 1025,3 hPa 0,0 l/m 0 min 0 min 0 W/m 0,0 km/h (0 Bft) 95,74 %
21.05.2017 03:04 9,4 C 7,8 C 6,7 C 89 % 2 lf 1025,3 hPa 0,0 l/m 0 min 0 min 0 W/m 0,0 km/h (0 Bft) 93,62 %
21.05.2017 03:06 9,4 C 8,3 C 6,7 C 89 % 2 lf 1025,3 hPa 0,0 l/m 0 min 0 min 0 W/m 0,0 km/h (0 Bft) 95,74 %
21.05.2017 03:08 9,4 C 8,3 C 6,7 C 89 % 2 lf 1025,4 hPa 0,0 l/m 0 min 0 min 0 W/m 0,0 km/h (0 Bft) 95,74 %
21.05.2017 03:10 9,3 C 8,3 C 6,7 C 89 % 2 lf 1025,3 hPa 0,0 l/m 0 min 0 min 0 W/m 0,0 km/h (0 Bft) 95,65 %
21.05.2017 03:12 9,3 C 8,3 C 6,7 C 89 % 2 lf 1025,4 hPa 0,0 l/m 0 min 0 min 0 W/m 0,0 km/h (0 Bft) 97,87 %
21.05.2017 03:14 9,3 C 8,3 C 6,7 C 89 % 2 lf 1025,4 hPa 0,0 l/m 0 min 0 min 0 W/m 0,0 km/h (0 Bft) 91,49 %
21.05.2017 03:16 9,3 C 8,3 C 6,7 C 89 % 2 lf 1025,4 hPa 0,0 l/m 0 min 0 min 0 W/m 0,0 km/h (0 Bft) 100,00 %
21.05.2017 03:18 9,2 C 8,3 C 6,7 C 89 % 2 lf 1025,4 hPa 0,0 l/m 0 min 0 min 0 W/m 0,0 km/h (0 Bft) 100,00 %
21.05.2017 03:20 9,2 C 8,3 C 6,7 C 89 % 2 lf 1025,4 hPa 0,0 l/m 0 min 0 min 0 W/m 0,0 km/h (0 Bft) 97,87 %
21.05.2017 03:22 9,2 C 8,3 C 6,7 C 89 % 2 lf 1025,4 hPa 0,0 l/m 0 min 0 min 0 W/m 0,0 km/h (0 Bft) 100,00 %
21.05.2017 03:24 9,2 C 8,3 C 6,7 C 89 % 2 lf 1025,4 hPa 0,0 l/m 0 min 0 min 0 W/m 0,0 km/h (0 Bft) 97,87 %
21.05.2017 03:26 9,2 C 8,3 C 6,7 C 89 % 2 lf 1025,4 hPa 0,0 l/m 0 min 0 min 0 W/m 0,0 km/h (0 Bft) 97,87 %
21.05.2017 03:28 9,1 C 7,8 C 6,7 C 89 % 2 lf 1025,3 hPa 0,0 l/m 0 min 0 min 0 W/m 0,0 km/h (0 Bft) 100,00 %
21.05.2017 03:30 9,1 C 7,8 C 6,7 C 89 % 2 lf 1025,4 hPa 0,0 l/m 0 min 0 min 0 W/m 0,0 km/h (0 Bft) 97,87 %
21.05.2017 03:32 9,1 C 7,8 C 6,1 C 89 % 2 lf 1025,4 hPa 0,0 l/m 0 min 0 min 0 W/m 0,0 km/h (0 Bft) 100,00 %
21.05.2017 03:34 9,1 C 7,8 C 6,1 C 89 % 2 lf 1025,4 hPa 0,0 l/m 0 min 0 min 0 W/m 0,0 km/h (0 Bft) 97,83 %
21.05.2017 03:36 9,0 C 8,3 C 6,7 C 89 % 3 lf 1025,4 hPa 0,0 l/m 0 min 0 min 0 W/m 4,2 km/h (1 Bft) 100,00 %
21.05.2017 03:38 9,0 C 7,8 C 6,1 C 89 % 3 lf 1025,4 hPa 0,0 l/m 0 min 0 min 0 W/m 4,2 km/h (1 Bft) 100,00 %
21.05.2017 03:40 8,9 C 8,3 C 6,1 C 89 % 3 lf 1025,4 hPa 0,0 l/m 0 min 0 min 0 W/m 4,2 km/h (1 Bft) 97,87 %
21.05.2017 03:42 8,9 C 8,3 C 6,1 C 89 % 3 lf 1025,4 hPa 0,0 l/m 0 min 0 min 0 W/m 4,2 km/h (1 Bft) 100,00 %
21.05.2017 03:44 8,9 C 8,3 C 6,1 C 89 % 3 lf 1025,5 hPa 0,0 l/m 0 min 0 min 0 W/m 6,3 km/h (2 Bft) 95,74 %
21.05.2017 03:46 8,9 C 8,3 C 6,7 C 89 % 3 lf 1025,4 hPa 0,0 l/m 0 min 0 min 0 W/m 4,2 km/h (1 Bft) 96,55 %
21.05.2017 03:48 8,8 C 8,3 C 6,1 C 89 % 3 lf 1025,5 hPa 0,0 l/m 0 min 0 min 0 W/m 4,2 km/h (1 Bft) 100,00 %
21.05.2017 03:50 8,8 C 8,3 C 6,1 C 89 % 3 lf 1025,5 hPa 0,0 l/m 0 min 0 min 0 W/m 2,1 km/h (1 Bft) 100,00 %
21.05.2017 03:52 8,8 C 8,3 C 6,1 C 90 % 3 lf 1025,5 hPa 0,0 l/m 0 min 0 min 0 W/m 4,2 km/h (1 Bft) 97,87 %
21.05.2017 03:54 8,8 C 8,3 C 6,1 C 90 % 3 lf 1025,5 hPa 0,0 l/m 0 min 0 min 0 W/m 4,2 km/h (1 Bft) 100,00 %
21.05.2017 03:56 8,8 C 8,3 C 6,1 C 90 % 3 lf 1025,5 hPa 0,0 l/m 0 min 0 min 0 W/m 4,2 km/h (1 Bft) 95,74 %
21.05.2017 03:58 8,7 C 8,3 C 6,1 C 90 % 3 lf 1025,5 hPa 0,0 l/m 0 min 0 min 0 W/m 4,2 km/h (1 Bft) 96,55 %
21.05.2017 04:00 8,7 C 8,3 C 6,1 C 90 % 3 lf 1025,5 hPa 0,0 l/m 0 min 0 min 0 W/m 4,2 km/h (1 Bft) 100,00 %
21.05.2017 04:02 8,7 C 8,3 C 6,1 C 90 % 3 lf 1025,5 hPa 0,0 l/m 0 min 0 min 0 W/m 4,2 km/h (1 Bft) 100,00 %
21.05.2017 04:04 8,7 C 8,3 C 6,1 C 90 % 3 lf 1025,5 hPa 0,0 l/m 0 min 0 min 0 W/m 4,2 km/h (1 Bft) 97,87 %
21.05.2017 04:06 8,7 C 8,3 C 6,1 C 90 % 3 lf 1025,5 hPa 0,0 l/m 0 min 0 min 0 W/m 0,0 km/h (0 Bft) 93,62 %
21.05.2017 04:08 8,7 C 8,3 C 6,1 C 90 % 3 lf 1025,5 hPa 0,0 l/m 0 min 0 min 0 W/m 0,0 km/h (0 Bft) 97,83 %
21.05.2017 04:10 8,7 C 7,8 C 6,1 C 90 % 3 lf 1025,4 hPa 0,0 l/m 0 min 0 min 0 W/m 0,0 km/h (0 Bft) 95,74 %
21.05.2017 04:12 8,6 C 7,8 C 6,1 C 91 % 4 lf 1025,4 hPa 0,0 l/m 0 min 0 min 0 W/m 0,0 km/h (0 Bft) 97,87 %
21.05.2017 04:14 8,6 C 7,8 C 6,1 C 91 % 4 lf 1025,5 hPa 0,0 l/m 0 min 0 min 0 W/m 0,0 km/h (0 Bft) 93,62 %
21.05.2017 04:16 8,6 C 7,8 C 6,1 C 91 % 4 lf 1025,5 hPa 0,0 l/m 0 min 0 min 0 W/m 0,0 km/h (0 Bft) 95,74 %
21.05.2017 04:18 8,6 C 7,8 C 6,1 C 91 % 4 lf 1025,5 hPa 0,0 l/m 0 min 0 min 0 W/m 0,0 km/h (0 Bft) 95,74 %
21.05.2017 04:20 8,5 C 7,8 C 6,1 C 91 % 4 lf 1025,5 hPa 0,0 l/m 0 min 0 min 0 W/m 0,0 km/h (0 Bft) 97,83 %
21.05.2017 04:22 8,5 C 7,8 C 6,1 C 91 % 4 lf 1025,6 hPa 0,0 l/m 0 min 0 min 0 W/m 0,0 km/h (0 Bft) 95,74 %
21.05.2017 04:24 8,4 C 7,8 C 6,1 C 91 % 4 lf 1025,5 hPa 0,0 l/m 0 min 0 min 0 W/m 0,0 km/h (0 Bft) 93,62 %
21.05.2017 04:26 8,4 C 7,8 C 6,1 C 91 % 4 lf 1025,6 hPa 0,0 l/m 0 min 0 min 0 W/m 0,0 km/h (0 Bft) 97,87 %
21.05.2017 04:28 8,4 C 7,8 C 6,1 C 91 % 4 lf 1025,6 hPa 0,0 l/m 0 min 0 min 0 W/m 0,0 km/h (0 Bft) 93,62 %
21.05.2017 04:30 8,4 C 7,8 C 6,1 C 91 % 4 lf 1025,6 hPa 0,0 l/m 0 min 0 min 0 W/m 0,0 km/h (0 Bft) 93,62 %
21.05.2017 04:32 8,4 C 7,8 C 6,1 C 91 % 4 lf 1025,6 hPa 0,0 l/m 0 min 0 min 0 W/m 0,0 km/h (0 Bft) 95,65 %
21.05.2017 04:34 8,4 C 7,8 C 6,1 C 91 % 5 lf 1025,7 hPa 0,0 l/m 0 min 0 min 0 W/m 0,0 km/h (0 Bft) 97,87 %
21.05.2017 04:36 8,3 C 7,8 C 6,1 C 91 % 5 lf 1025,7 hPa 0,0 l/m 0 min 0 min 0 W/m 0,0 km/h (0 Bft) 95,74 %
21.05.2017 04:38 8,3 C 7,8 C 6,1 C 91 % 5 lf 1025,7 hPa 0,0 l/m 0 min 0 min 0 W/m 0,0 km/h (0 Bft) 93,62 %
21.05.2017 04:40 8,3 C 7,8 C 6,1 C 91 % 6 lf 1025,6 hPa 0,0 l/m 0 min 0 min 0 W/m 0,0 km/h (0 Bft) 93,62 %
21.05.2017 04:42 8,3 C 7,8 C 6,1 C 91 % 6 lf 1025,6 hPa 0,0 l/m 0 min 0 min 0 W/m 0,0 km/h (0 Bft) 95,65 %
21.05.2017 04:44 8,3 C 7,8 C 6,1 C 91 % 7 lf 1025,6 hPa 0,0 l/m 0 min 0 min 0 W/m 0,0 km/h (0 Bft) 89,36 %
21.05.2017 04:46 8,2 C 7,8 C 6,1 C 91 % 7 lf 1025,6 hPa 0,0 l/m 0 min 0 min 0 W/m 0,0 km/h (0 Bft) 95,74 %
21.05.2017 04:48 8,2 C 7,8 C 6,1 C 92 % 7 lf 1025,6 hPa 0,0 l/m 0 min 0 min 0 W/m 0,0 km/h (0 Bft) 91,43 %
21.05.2017 04:50 8,2 C 7,8 C 6,1 C 91 % 8 lf 1025,6 hPa 0,0 l/m 0 min 0 min 0 W/m 0,0 km/h (0 Bft) 98,31 %
21.05.2017 04:52 8,2 C 7,8 C 6,1 C 91 % 8 lf 1025,7 hPa 0,0 l/m 0 min 0 min 0 W/m 0,0 km/h (0 Bft) 97,14 %
21.05.2017 04:54 8,2 C 7,8 C 6,1 C 92 % 8 lf 1025,7 hPa 0,0 l/m 0 min 0 min 0 W/m 0,0 km/h (0 Bft) 95,74 %
21.05.2017 04:56 8,2 C 7,2 C 5,6 C 92 % 9 lf 1025,7 hPa 0,0 l/m 0 min 0 min 0 W/m 0,0 km/h (0 Bft) 96,55 %
21.05.2017 04:58 8,2 C 7,8 C 6,1 C 92 % 9 lf 1025,7 hPa 0,0 l/m 0 min 0 min 0 W/m 0,0 km/h (0 Bft) 97,87 %
21.05.2017 05:00 8,1 C 7,2 C 5,6 C 92 % 9 lf 1025,7 hPa 0,0 l/m 0 min 0 min 0 W/m 0,0 km/h (0 Bft) 97,14 %
21.05.2017 05:02 8,1 C 7,2 C 5,6 C 92 % 9 lf 1025,7 hPa 0,0 l/m 0 min 0 min 0 W/m 0,0 km/h (0 Bft) 96,61 %
21.05.2017 05:04 8,1 C 7,2 C 5,6 C 92 % 10 lf 1025,6 hPa 0,0 l/m 0 min 0 min 0 W/m 0,0 km/h (0 Bft) 91,49 %
21.05.2017 05:06 8,1 C 7,2 C 5,6 C 92 % 10 lf 1025,7 hPa 0,0 l/m 0 min 0 min 0 W/m 0,0 km/h (0 Bft) 93,48 %
21.05.2017 05:08 8,1 C 7,8 C 6,1 C 92 % 10 lf 1025,7 hPa 0,0 l/m 0 min 0 min 0 W/m 0,0 km/h (0 Bft) 97,87 %
21.05.2017 05:10 8,1 C 7,2 C 6,1 C 92 % 10 lf 1025,7 hPa 0,0 l/m 0 min 0 min 0 W/m 0,0 km/h (0 Bft) 97,87 %
21.05.2017 05:12 8,0 C 7,2 C 5,6 C 92 % 10 lf 1025,7 hPa 0,0 l/m 0 min 0 min 0 W/m 0,0 km/h (0 Bft) 97,87 %
21.05.2017 05:14 8,0 C 7,2 C 5,6 C 92 % 10 lf 1025,7 hPa 0,0 l/m 0 min 0 min 0 W/m 0,0 km/h (0 Bft) 95,74 %
21.05.2017 05:16 8,0 C 7,2 C 5,6 C 92 % 10 lf 1025,7 hPa 0,0 l/m 0 min 0 min 0 W/m 0,0 km/h (0 Bft) 95,74 %
21.05.2017 05:18 7,9 C 7,2 C 5,6 C 92 % 10 lf 1025,7 hPa 0,0 l/m 0 min 0 min 0 W/m 0,0 km/h (0 Bft) 97,83 %
21.05.2017 05:20 7,9 C 7,2 C 5,6 C 92 % 11 lf 1025,7 hPa 0,0 l/m 0 min 0 min 0 W/m 0,0 km/h (0 Bft) 97,87 %
21.05.2017 05:22 7,9 C 7,2 C 5,6 C 92 % 11 lf 1025,7 hPa 0,0 l/m 0 min 0 min 0 W/m 0,0 km/h (0 Bft) 97,87 %
21.05.2017 05:24 7,9 C 7,2 C 5,6 C 92 % 11 lf 1025,7 hPa 0,0 l/m 0 min 0 min 0 W/m 0,0 km/h (0 Bft) 93,62 %
21.05.2017 05:26 7,9 C 7,2 C 5,6 C 92 % 12 lf 1025,7 hPa 0,0 l/m 0 min 0 min 0 W/m 0,0 km/h (0 Bft) 95,74 %
21.05.2017 05:28 7,9 C 6,7 C 5,6 C 92 % 12 lf 1025,7 hPa 0,0 l/m 0 min 0 min 0 W/m 0,0 km/h (0 Bft) 97,87 %
21.05.2017 05:30 7,8 C 7,2 C 5,6 C 92 % 12 lf 1025,7 hPa 0,0 l/m 0 min 0 min 0 W/m 4,2 km/h (1 Bft) 95,65 %
21.05.2017 05:32 7,8 C 7,2 C 5,6 C 92 % 12 lf 1025,7 hPa 0,0 l/m 0 min 0 min 5 W/m 4,2 km/h (1 Bft) 97,87 %
21.05.2017 05:34 7,8 C 6,7 C 5,6 C 92 % 12 lf 1025,7 hPa 0,0 l/m 0 min 0 min 5 W/m 6,3 km/h (2 Bft) 93,62 %
21.05.2017 05:36 7,8 C 6,7 C 5,6 C 92 % 12 lf 1025,7 hPa 0,0 l/m 0 min 0 min 5 W/m 4,2 km/h (1 Bft) 93,62 %
21.05.2017 05:38 7,8 C 6,7 C 5,6 C 92 % 12 lf 1025,7 hPa 0,0 l/m 0 min 0 min 6 W/m 6,3 km/h (2 Bft) 97,87 %
21.05.2017 05:40 7,7 C 6,7 C 5,6 C 92 % 12 lf 1025,7 hPa 0,0 l/m 0 min 0 min 7 W/m 4,2 km/h (1 Bft) 93,62 %
21.05.2017 05:42 7,7 C 6,7 C 5,6 C 92 % 12 lf 1025,7 hPa 0,0 l/m 0 min 0 min 7 W/m 4,2 km/h (1 Bft) 97,83 %
21.05.2017 05:44 7,7 C 7,2 C 5,6 C 92 % 13 lf 1025,7 hPa 0,0 l/m 0 min 0 min 9 W/m 4,2 km/h (1 Bft) 100,00 %
21.05.2017 05:46 7,7 C 7,2 C 5,6 C 92 % 13 lf 1025,7 hPa 0,0 l/m 0 min 0 min 9 W/m 2,1 km/h (1 Bft) 93,62 %
21.05.2017 05:48 7,7 C 7,2 C 5,6 C 92 % 13 lf 1025,7 hPa 0,0 l/m 0 min 0 min 11 W/m 4,2 km/h (1 Bft) 97,87 %
21.05.2017 05:50 7,7 C 7,2 C 5,6 C 92 % 13 lf 1025,7 hPa 0,0 l/m 0 min 0 min 12 W/m 4,2 km/h (1 Bft) 97,87 %
21.05.2017 05:52 7,6 C 7,2 C 5,6 C 92 % 13 lf 1025,7 hPa 0,0 l/m 0 min 0 min 12 W/m 4,2 km/h (1 Bft) 93,48 %
21.05.2017 05:54 7,6 C 7,2 C 5,6 C 92 % 13 lf 1025,7 hPa 0,0 l/m 0 min 0 min 14 W/m 4,2 km/h (1 Bft) 97,87 %
21.05.2017 05:56 7,6 C 7,2 C 6,1 C 92 % 13 lf 1025,7 hPa 0,0 l/m 0 min 0 min 15 W/m 4,2 km/h (1 Bft) 100,00 %
21.05.2017 05:58 7,6 C 7,8 C 6,1 C 92 % 13 lf 1025,8 hPa 0,0 l/m 0 min 0 min 17 W/m 6,3 km/h (2 Bft) 100,00 %
21.05.2017 06:00 7,6 C 7,8 C 6,1 C 93 % 13 lf 1025,8 hPa 0,0 l/m 0 min 0 min 18 W/m 4,2 km/h (1 Bft) 100,00 %
21.05.2017 06:02 7,6 C 7,8 C 6,1 C 93 % 13 lf 1025,9 hPa 0,0 l/m 0 min 0 min 19 W/m 4,2 km/h (1 Bft) 95,74 %
21.05.2017 06:04 7,6 C 7,8 C 6,1 C 93 % 13 lf 1025,9 hPa 0,0 l/m 2 min 0 min 39 W/m 4,2 km/h (1 Bft) 95,65 %
21.05.2017 06:06 7,6 C 7,2 C 6,1 C 93 % 13 lf 1026,0 hPa 0,0 l/m 2 min 0 min 40 W/m 2,1 km/h (1 Bft) 93,62 %
21.05.2017 06:08 7,6 C 7,2 C 6,1 C 93 % 13 lf 1025,9 hPa 0,0 l/m 2 min 0 min 41 W/m 4,2 km/h (1 Bft) 97,22 %
21.05.2017 06:10 7,6 C 7,2 C 6,1 C 93 % 13 lf 1025,9 hPa 0,0 l/m 2 min 0 min 42 W/m 4,2 km/h (1 Bft) 93,62 %
21.05.2017 06:12 7,6 C 7,8 C 6,1 C 93 % 13 lf 1025,9 hPa 0,0 l/m 2 min 0 min 43 W/m 4,2 km/h (1 Bft) 97,87 %
21.05.2017 06:14 7,6 C 7,8 C 6,1 C 93 % 14 lf 1025,9 hPa 0,0 l/m 2 min 0 min 44 W/m 4,2 km/h (1 Bft) 93,62 %
21.05.2017 06:16 7,6 C 7,8 C 6,1 C 93 % 14 lf 1025,9 hPa 0,0 l/m 2 min 0 min 63 W/m 4,2 km/h (1 Bft) 87,23 %
21.05.2017 06:18 7,6 C 7,8 C 6,1 C 93 % 14 lf 1025,9 hPa 0,0 l/m 2 min 0 min 66 W/m 0,0 km/h (0 Bft) 95,74 %
21.05.2017 06:20 7,6 C 7,8 C 6,1 C 93 % 13 lf 1026,0 hPa 0,0 l/m 2 min 0 min 69 W/m 0,0 km/h (0 Bft) 95,65 %
21.05.2017 06:22 7,6 C 7,8 C 6,1 C 93 % 13 lf 1026,0 hPa 0,0 l/m 2 min 0 min 73 W/m 0,0 km/h (0 Bft) 96,55 %
21.05.2017 06:24 7,6 C 7,8 C 6,1 C 93 % 13 lf 1026,0 hPa 0,0 l/m 2 min 0 min 78 W/m 0,0 km/h (0 Bft) 97,87 %
21.05.2017 06:26 7,6 C 7,8 C 6,1 C 93 % 13 lf 1026,0 hPa 0,0 l/m 2 min 0 min 81 W/m 0,0 km/h (0 Bft) 93,62 %
21.05.2017 06:28 7,6 C 7,8 C 6,1 C 93 % 13 lf 1026,0 hPa 0,0 l/m 2 min 0 min 86 W/m 0,0 km/h (0 Bft) 91,30 %
21.05.2017 06:30 7,6 C 7,8 C 6,1 C 93 % 13 lf 1026,0 hPa 0,0 l/m 2 min 0 min 90 W/m 0,0 km/h (0 Bft) 91,67 %
21.05.2017 06:32 7,6 C 7,8 C 6,1 C 94 % 13 lf 1026,0 hPa 0,0 l/m 2 min 0 min 93 W/m 6,3 km/h (2 Bft) 91,38 %
21.05.2017 06:34 7,6 C 7,8 C 6,7 C 94 % 13 lf 1026,1 hPa 0,0 l/m 2 min 0 min 72 W/m 6,3 km/h (2 Bft) 94,29 %
21.05.2017 06:36 7,6 C 7,8 C 6,7 C 94 % 13 lf 1026,1 hPa 0,0 l/m 2 min 0 min 64 W/m 4,2 km/h (1 Bft) 91,53 %
21.05.2017 06:38 7,6 C 8,3 C 6,7 C 94 % 13 lf 1026,1 hPa 0,0 l/m 2 min 0 min 66 W/m 4,2 km/h (1 Bft) 91,49 %
21.05.2017 06:40 7,6 C 8,3 C 6,7 C 94 % 13 lf 1026,1 hPa 0,0 l/m 2 min 0 min 76 W/m 4,2 km/h (1 Bft) 95,65 %
21.05.2017 06:42 7,7 C 8,3 C 6,7 C 94 % 13 lf 1026,1 hPa 0,0 l/m 2 min 0 min 86 W/m 0,0 km/h (0 Bft) 91,49 %
21.05.2017 06:44 7,7 C 8,3 C 6,7 C 94 % 12 lf 1026,1 hPa 0,0 l/m 2 min 0 min 90 W/m 4,2 km/h (1 Bft) 93,62 %
21.05.2017 06:46 7,7 C 8,3 C 6,7 C 94 % 12 lf 1026,0 hPa 0,0 l/m 2 min 0 min 94 W/m 4,2 km/h (1 Bft) 91,49 %
21.05.2017 06:48 7,7 C 8,3 C 6,7 C 94 % 11 lf 1026,1 hPa 0,0 l/m 2 min 0 min 98 W/m 6,3 km/h (2 Bft) 93,62 %
21.05.2017 06:50 7,8 C 8,3 C 6,7 C 94 % 10 lf 1026,1 hPa 0,0 l/m 2 min 0 min 103 W/m 8,4 km/h (2 Bft) 91,49 %
21.05.2017 06:52 7,8 C 8,3 C 6,7 C 94 % 9 lf 1026,1 hPa 0,0 l/m 2 min 0 min 106 W/m 6,3 km/h (2 Bft) 93,48 %
21.05.2017 06:54 7,8 C 8,9 C 7,2 C 94 % 6 lf 1026,1 hPa 0,0 l/m 2 min 0 min 110 W/m 6,3 km/h (2 Bft) 94,29 %
21.05.2017 06:56 7,8 C 8,9 C 7,2 C 94 % 4 lf 1026,0 hPa 0,0 l/m 2 min 0 min 112 W/m 6,3 km/h (2 Bft) 89,83 %
21.05.2017 06:58 7,9 C 8,9 C 7,2 C 94 % 4 lf 1026,1 hPa 0,0 l/m 2 min 0 min 117 W/m 4,2 km/h (1 Bft) 93,62 %
21.05.2017 07:00 7,9 C 8,9 C 7,2 C 94 % 3 lf 1026,1 hPa 0,0 l/m 2 min 0 min 122 W/m 4,2 km/h (1 Bft) 91,49 %
21.05.2017 07:02 7,9 C 8,9 C 7,2 C 94 % 2 lf 1026,0 hPa 0,0 l/m 2 min 0 min 129 W/m 6,3 km/h (2 Bft) 91,43 %
21.05.2017 07:04 7,9 C 8,9 C 7,2 C 94 % 2 lf 1026,1 hPa 0,0 l/m 2 min 0 min 132 W/m 6,3 km/h (2 Bft) 95,74 %
21.05.2017 07:06 8,0 C 8,9 C 7,2 C 94 % 2 lf 1026,1 hPa 0,0 l/m 2 min 0 min 139 W/m 6,3 km/h (2 Bft) 91,38 %
21.05.2017 07:08 8,0 C 8,9 C 7,2 C 95 % 1 lf 1026,1 hPa 0,0 l/m 2 min 0 min 147 W/m 4,2 km/h (1 Bft) 91,49 %
21.05.2017 07:10 8,1 C 9,4 C 7,2 C 95 % 1 lf 1026,1 hPa 0,0 l/m 2 min 0 min 150 W/m 4,2 km/h (1 Bft) 95,74 %
21.05.2017 07:12 8,1 C 9,4 C 7,2 C 95 % 1 lf 1026,1 hPa 0,0 l/m 2 min 0 min 163 W/m 4,2 km/h (1 Bft) 93,62 %
21.05.2017 07:14 8,1 C 9,4 C 7,2 C 95 % 1 lf 1026,1 hPa 0,0 l/m 2 min 0 min 173 W/m 6,3 km/h (2 Bft) 97,83 %
21.05.2017 07:16 8,2 C 9,4 C 7,8 C 95 % 1 lf 1026,1 hPa 0,0 l/m 2 min 0 min 180 W/m 4,2 km/h (1 Bft) 97,87 %
21.05.2017 07:18 8,2 C 9,4 C 7,8 C 95 % 1 lf 1026,2 hPa 0,0 l/m 2 min 0 min 169 W/m 8,4 km/h (2 Bft) 95,74 %
21.05.2017 07:20 8,2 C 9,4 C 7,8 C 95 % 1 lf 1026,2 hPa 0,0 l/m 2 min 0 min 149 W/m 8,4 km/h (2 Bft) 97,87 %
21.05.2017 07:22 8,3 C 9,4 C 7,8 C 95 % 1 lf 1026,3 hPa 0,0 l/m 2 min 0 min 157 W/m 6,3 km/h (2 Bft) 95,74 %
21.05.2017 07:24 8,3 C 9,4 C 7,8 C 95 % 1 lf 1026,3 hPa 0,0 l/m 2 min 0 min 155 W/m 12,6 km/h (3 Bft) 93,62 %
21.05.2017 07:26 8,3 C 10,0 C 7,8 C 95 % 1 lf 1026,3 hPa 0,0 l/m 2 min 0 min 222 W/m 12,6 km/h (3 Bft) 95,65 %
21.05.2017 07:28 8,4 C 10,0 C 7,8 C 95 % 1 lf 1026,3 hPa 0,0 l/m 2 min 0 min 186 W/m 10,5 km/h (2 Bft) 97,87 %
21.05.2017 07:30 8,4 C 10,0 C 7,8 C 95 % 1 lf 1026,3 hPa 0,0 l/m 2 min 0 min 186 W/m 10,5 km/h (2 Bft) 100,00 %
21.05.2017 07:32 8,4 C 10,0 C 7,8 C 95 % 1 lf 1026,3 hPa 0,0 l/m 2 min 0 min 153 W/m 6,3 km/h (2 Bft) 100,00 %
21.05.2017 07:34 8,5 C 10,0 C 8,3 C 95 % 1 lf 1026,3 hPa 0,0 l/m 2 min 0 min 163 W/m 6,3 km/h (2 Bft) 100,00 %
21.05.2017 07:36 8,6 C 10,0 C 8,3 C 95 % 0 lf 1026,3 hPa 0,0 l/m 2 min 0 min 186 W/m 8,4 km/h (2 Bft) 94,29 %
21.05.2017 07:38 8,6 C 10,0 C 8,3 C 95 % 0 lf 1026,4 hPa 0,0 l/m 2 min 0 min 218 W/m 8,4 km/h (2 Bft) 96,55 %
21.05.2017 07:40 8,7 C 10,6 C 8,3 C 95 % 0 lf 1026,3 hPa 0,0 l/m 2 min 0 min 219 W/m 6,3 km/h (2 Bft) 97,87 %
21.05.2017 07:42 8,7 C 10,6 C 8,3 C 95 % 0 lf 1026,3 hPa 0,0 l/m 2 min 0 min 257 W/m 4,2 km/h (1 Bft) 100,00 %
21.05.2017 07:44 8,7 C 10,6 C 8,3 C 95 % 0 lf 1026,3 hPa 0,0 l/m 2 min 0 min 290 W/m 6,3 km/h (2 Bft) 100,00 %
21.05.2017 07:46 8,8 C 11,1 C 8,3 C 95 % 0 lf 1026,3 hPa 0,0 l/m 2 min 0 min 298 W/m 4,2 km/h (1 Bft) 97,87 %
21.05.2017 07:48 8,8 C 11,1 C 8,3 C 95 % 0 lf 1026,3 hPa 0,0 l/m 2 min 0 min 306 W/m 4,2 km/h (1 Bft) 100,00 %
21.05.2017 07:50 8,9 C 11,1 C 8,9 C 95 % 0 lf 1026,3 hPa 0,0 l/m 2 min 0 min 314 W/m 6,3 km/h (2 Bft) 100,00 %
21.05.2017 07:52 8,9 C 11,1 C 8,9 C 95 % 0 lf 1026,3 hPa 0,0 l/m 2 min 0 min 315 W/m 6,3 km/h (2 Bft) 97,83 %
21.05.2017 07:54 9,0 C 11,7 C 8,9 C 95 % 0 lf 1026,3 hPa 0,0 l/m 2 min 0 min 312 W/m 6,3 km/h (2 Bft) 100,00 %
21.05.2017 07:56 9,1 C 11,7 C 8,9 C 96 % 0 lf 1026,3 hPa 0,0 l/m 2 min 0 min 308 W/m 8,4 km/h (2 Bft) 97,87 %
21.05.2017 07:58 9,2 C 11,7 C 9,4 C 96 % 0 lf 1026,3 hPa 0,0 l/m 2 min 0 min 317 W/m 4,2 km/h (1 Bft) 100,00 %
21.05.2017 08:00 9,2 C 11,7 C 9,4 C 95 % 0 lf 1026,3 hPa 0,0 l/m 2 min 0 min 240 W/m 8,4 km/h (2 Bft) 100,00 %
21.05.2017 08:02 9,3 C 11,7 C 9,4 C 95 % 0 lf 1026,3 hPa 0,0 l/m 2 min 0 min 268 W/m 8,4 km/h (2 Bft) 97,14 %
21.05.2017 08:04 9,4 C 11,7 C 9,4 C 95 % 0 lf 1026,3 hPa 0,0 l/m 2 min 0 min 354 W/m 8,4 km/h (2 Bft) 97,83 %
21.05.2017 08:06 9,5 C 12,2 C 9,4 C 96 % 0 lf 1026,3 hPa 0,0 l/m 2 min 0 min 364 W/m 6,3 km/h (2 Bft) 95,74 %
21.05.2017 08:08 9,6 C 12,2 C 9,4 C 96 % 0 lf 1026,3 hPa 0,0 l/m 2 min 0 min 370 W/m 6,3 km/h (2 Bft) 93,22 %
21.05.2017 08:10 9,6 C 12,2 C 10,0 C 95 % 0 lf 1026,3 hPa 0,0 l/m 2 min 0 min 381 W/m 6,3 km/h (2 Bft) 93,62 %
21.05.2017 08:12 9,7 C 12,2 C 10,0 C 95 % 0 lf 1026,4 hPa 0,0 l/m 2 min 0 min 378 W/m 6,3 km/h (2 Bft) 97,87 %
21.05.2017 08:14 9,8 C 12,2 C 10,0 C 96 % 0 lf 1026,3 hPa 0,0 l/m 2 min 0 min 269 W/m 10,5 km/h (2 Bft) 93,48 %
21.05.2017 08:16 9,9 C 12,2 C 10,0 C 96 % 0 lf 1026,4 hPa 0,0 l/m 2 min 0 min 345 W/m 10,5 km/h (2 Bft) 97,14 %
21.05.2017 08:18 10,0 C 12,2 C 10,0 C 95 % 0 lf 1026,4 hPa 0,0 l/m 2 min 0 min 413 W/m 8,4 km/h (2 Bft) 93,22 %
21.05.2017 08:20 10,1 C 12,8 C 10,0 C 95 % 0 lf 1026,3 hPa 0,0 l/m 2 min 0 min 422 W/m 8,4 km/h (2 Bft) 97,87 %
21.05.2017 08:22 10,2 C 12,8 C 10,0 C 95 % 0 lf 1026,3 hPa 0,0 l/m 2 min 0 min 425 W/m 6,3 km/h (2 Bft) 95,74 %
21.05.2017 08:24 10,2 C 12,8 C 10,0 C 95 % 0 lf 1026,3 hPa 0,0 l/m 2 min 0 min 432 W/m 4,2 km/h (1 Bft) 95,74 %
21.05.2017 08:26 10,3 C 14,4 C 10,6 C 95 % 0 lf 1026,3 hPa 0,0 l/m 2 min 0 min 437 W/m 6,3 km/h (2 Bft) 91,30 %
21.05.2017 08:28 10,4 C 15,6 C 10,6 C 95 % 0 lf 1026,4 hPa 0,0 l/m 2 min 0 min 453 W/m 4,2 km/h (1 Bft) 93,62 %
21.05.2017 08:30 10,5 C 17,2 C 10,6 C 95 % 0 lf 1026,4 hPa 0,0 l/m 2 min 0 min 465 W/m 6,3 km/h (2 Bft) 93,62 %
21.05.2017 08:32 10,6 C 20,0 C 10,6 C 95 % 0 lf 1026,3 hPa 0,0 l/m 2 min 0 min 473 W/m 6,3 km/h (2 Bft) 95,74 %
21.05.2017 08:34 10,7 C 20,0 C 11,1 C 95 % 0 lf 1026,4 hPa 0,0 l/m 2 min 0 min 472 W/m 8,4 km/h (2 Bft) 95,74 %
21.05.2017 08:36 10,8 C 20,6 C 11,1 C 95 % 0 lf 1026,4 hPa 0,0 l/m 2 min 0 min 494 W/m 6,3 km/h (2 Bft) 95,65 %
21.05.2017 08:38 11,0 C 21,7 C 11,7 C 95 % 0 lf 1026,4 hPa 0,0 l/m 2 min 0 min 497 W/m 8,4 km/h (2 Bft) 95,74 %
21.05.2017 08:40 11,2 C 21,1 C 11,7 C 95 % 0 lf 1026,4 hPa 0,0 l/m 2 min 0 min 502 W/m 6,3 km/h (2 Bft) 95,74 %
21.05.2017 08:42 11,4 C 21,7 C 11,7 C 94 % 0 lf 1026,4 hPa 0,0 l/m 2 min 0 min 508 W/m 8,4 km/h (2 Bft) 95,74 %
21.05.2017 08:44 11,6 C 22,2 C 11,7 C 94 % 0 lf 1026,4 hPa 0,0 l/m 2 min 0 min 516 W/m 8,4 km/h (2 Bft) 93,62 %
21.05.2017 08:46 11,7 C 21,7 C 11,7 C 94 % 0 lf 1026,4 hPa 0,0 l/m 2 min 0 min 534 W/m 8,4 km/h (2 Bft) 93,62 %
21.05.2017 08:48 11,9 C 21,1 C 11,7 C 93 % 0 lf 1026,5 hPa 0,0 l/m 2 min 0 min 485 W/m 8,4 km/h (2 Bft) 95,65 %
21.05.2017 08:50 12,2 C 21,1 C 12,2 C 92 % 0 lf 1026,5 hPa 0,0 l/m 2 min 0 min 455 W/m 8,4 km/h (2 Bft) 95,74 %
21.05.2017 08:52 12,3 C 21,1 C 12,2 C 91 % 0 lf 1026,5 hPa 0,0 l/m 2 min 0 min 479 W/m 8,4 km/h (2 Bft) 93,62 %
21.05.2017 08:54 12,5 C 22,2 C 12,2 C 90 % 0 lf 1026,5 hPa 0,0 l/m 2 min 0 min 506 W/m 6,3 km/h (2 Bft) 95,74 %
21.05.2017 08:56 12,7 C 22,2 C 12,2 C 89 % 0 lf 1026,5 hPa 0,0 l/m 2 min 0 min 510 W/m 6,3 km/h (2 Bft) 97,87 %
21.05.2017 08:58 12,9 C 22,2 C 12,2 C 89 % 0 lf 1026,5 hPa 0,0 l/m 2 min 0 min 539 W/m 6,3 km/h (2 Bft) 97,14 %
21.05.2017 09:00 13,1 C 22,8 C 12,8 C 87 % 0 lf 1026,6 hPa 0,0 l/m 2 min 0 min 571 W/m 8,4 km/h (2 Bft) 97,87 %
21.05.2017 09:02 13,3 C 23,3 C 12,8 C 87 % 0 lf 1026,5 hPa 0,0 l/m 2 min 0 min 577 W/m 8,4 km/h (2 Bft) 96,49 %
21.05.2017 09:04 13,5 C 23,3 C 12,8 C 86 % 0 lf 1026,5 hPa 0,0 l/m 2 min 0 min 557 W/m 8,4 km/h (2 Bft) 95,74 %
21.05.2017 09:06 13,7 C 22,8 C 12,8 C 85 % 0 lf 1026,5 hPa 0,0 l/m 2 min 0 min 528 W/m 8,4 km/h (2 Bft) 100,00 %
21.05.2017 09:08 13,9 C 21,1 C 13,3 C 84 % 0 lf 1026,5 hPa 0,0 l/m 2 min 0 min 538 W/m 8,4 km/h (2 Bft) 97,87 %
21.05.2017 09:10 14,2 C 21,7 C 13,3 C 83 % 0 lf 1026,6 hPa 0,0 l/m 2 min 0 min 486 W/m 8,4 km/h (2 Bft) 100,00 %
21.05.2017 09:12 14,2 C 23,9 C 13,3 C 82 % 0 lf 1026,6 hPa 0,0 l/m 2 min 0 min 594 W/m 6,3 km/h (2 Bft) 100,00 %
21.05.2017 09:14 14,4 C 24,4 C 13,3 C 82 % 0 lf 1026,6 hPa 0,0 l/m 2 min 0 min 652 W/m 8,4 km/h (2 Bft) 100,00 %
21.05.2017 09:16 14,6 C 25,0 C 13,3 C 81 % 0 lf 1026,6 hPa 0,0 l/m 2 min 0 min 669 W/m 8,4 km/h (2 Bft) 95,74 %
21.05.2017 09:18 14,7 C 23,9 C 13,9 C 79 % 0 lf 1026,6 hPa 0,0 l/m 2 min 0 min 604 W/m 6,3 km/h (2 Bft) 100,00 %
21.05.2017 09:20 14,9 C 23,3 C 14,4 C 79 % 0 lf 1026,6 hPa 0,0 l/m 2 min 0 min 620 W/m 10,5 km/h (2 Bft) 100,00 %
21.05.2017 09:22 15,1 C 23,9 C 14,4 C 78 % 0 lf 1026,7 hPa 0,0 l/m 2 min 0 min 635 W/m 8,4 km/h (2 Bft) 100,00 %
21.05.2017 09:24 15,2 C 23,9 C 14,4 C 78 % 0 lf 1026,7 hPa 0,0 l/m 2 min 0 min 650 W/m 4,2 km/h (1 Bft) 97,83 %
21.05.2017 09:26 15,4 C 23,3 C 15,0 C 77 % 0 lf 1026,7 hPa 0,0 l/m 2 min 0 min 655 W/m 6,3 km/h (2 Bft) 100,00 %
21.05.2017 09:28 15,6 C 22,8 C 15,0 C 77 % 0 lf 1026,7 hPa 0,0 l/m 2 min 0 min 670 W/m 8,4 km/h (2 Bft) 100,00 %
21.05.2017 09:30 15,7 C 22,8 C 15,0 C 76 % 0 lf 1026,7 hPa 0,0 l/m 2 min 0 min 689 W/m 10,5 km/h (2 Bft) 100,00 %
21.05.2017 09:32 15,8 C 21,7 C 15,0 C 75 % 0 lf 1026,7 hPa 0,0 l/m 2 min 0 min 635 W/m 8,4 km/h (2 Bft) 100,00 %
21.05.2017 09:34 15,9 C 22,2 C 15,0 C 75 % 0 lf 1026,8 hPa 0,0 l/m 2 min 0 min 466 W/m 6,3 km/h (2 Bft) 97,87 %
21.05.2017 09:36 16,1 C 23,3 C 15,0 C 74 % 0 lf 1026,7 hPa 0,0 l/m 2 min 0 min 420 W/m 4,2 km/h (1 Bft) 100,00 %
21.05.2017 09:38 16,1 C 22,2 C 15,0 C 73 % 0 lf 1026,7 hPa 0,0 l/m 2 min 0 min 403 W/m 8,4 km/h (2 Bft) 95,74 %
21.05.2017 09:40 16,2 C 24,4 C 15,0 C 73 % 0 lf 1026,8 hPa 0,0 l/m 2 min 0 min 444 W/m 6,3 km/h (2 Bft) 95,74 %
21.05.2017 09:42 16,3 C 26,1 C 15,0 C 72 % 0 lf 1026,7 hPa 0,0 l/m 2 min 0 min 481 W/m 6,3 km/h (2 Bft) 95,74 %
21.05.2017 09:44 16,4 C 27,8 C 15,6 C 72 % 0 lf 1026,7 hPa 0,0 l/m 2 min 0 min 500 W/m 6,3 km/h (2 Bft) 95,74 %
21.05.2017 09:46 16,6 C 27,8 C 16,1 C 73 % 0 lf 1026,7 hPa 0,0 l/m 2 min 0 min 495 W/m 8,4 km/h (2 Bft) 93,62 %
21.05.2017 09:48 16,7 C 27,2 C 16,1 C 72 % 0 lf 1026,7 hPa 0,0 l/m 2 min 0 min 483 W/m 8,4 km/h (2 Bft) 95,65 %
21.05.2017 09:50 16,8 C 26,7 C 17,2 C 71 % 0 lf 1026,7 hPa 0,0 l/m 2 min 0 min 478 W/m 8,4 km/h (2 Bft) 93,62 %
21.05.2017 09:52 16,9 C 26,7 C 17,2 C 71 % 0 lf 1026,7 hPa 0,0 l/m 2 min 0 min 468 W/m 2,1 km/h (1 Bft) 95,74 %
21.05.2017 09:54 17,1 C 25,0 C 18,3 C 71 % 0 lf 1026,7 hPa 0,0 l/m 2 min 0 min 469 W/m 8,4 km/h (2 Bft) 95,74 %
21.05.2017 09:56 17,2 C 26,1 C 20,0 C 71 % 0 lf 1026,7 hPa 0,0 l/m 2 min 0 min 498 W/m 8,4 km/h (2 Bft) 95,74 %
21.05.2017 09:58 17,3 C 26,1 C 20,6 C 71 % 0 lf 1026,7 hPa 0,0 l/m 2 min 0 min 503 W/m 6,3 km/h (2 Bft) 91,30 %
21.05.2017 10:00 17,4 C 25,6 C 22,2 C 69 % 0 lf 1026,7 hPa 0,0 l/m 2 min 0 min 517 W/m 10,5 km/h (2 Bft) 95,74 %
21.05.2017 10:02 17,6 C 26,7 C 22,2 C 68 % 0 lf 1026,7 hPa 0,0 l/m 2 min 0 min 511 W/m 6,3 km/h (2 Bft) 93,62 %
21.05.2017 10:04 17,7 C 26,1 C 23,3 C 67 % 0 lf 1026,7 hPa 0,0 l/m 2 min 0 min 513 W/m 6,3 km/h (2 Bft) 95,74 %
21.05.2017 10:06 17,8 C 26,1 C 23,3 C 67 % 0 lf 1026,7 hPa 0,0 l/m 2 min 0 min 513 W/m 10,5 km/h (2 Bft) 95,74 %
21.05.2017 10:08 17,9 C 26,1 C 23,3 C 68 % 0 lf 1026,7 hPa 0,0 l/m 2 min 0 min 498 W/m 10,5 km/h (2 Bft) 89,36 %
21.05.2017 10:10 18,1 C 26,1 C 23,3 C 67 % 0 lf 1026,8 hPa 0,0 l/m 2 min 0 min 511 W/m 10,5 km/h (2 Bft) 95,65 %
21.05.2017 10:12 18,2 C 25,6 C 23,3 C 66 % 0 lf 1026,7 hPa 0,0 l/m 2 min 0 min 499 W/m 10,5 km/h (2 Bft) 91,49 %
21.05.2017 10:14 18,3 C 25,6 C 22,8 C 67 % 0 lf 1026,7 hPa 0,0 l/m 2 min 0 min 506 W/m 8,4 km/h (2 Bft) 97,87 %
21.05.2017 10:16 18,3 C 27,2 C 22,2 C 66 % 0 lf 1026,8 hPa 0,0 l/m 2 min 0 min 489 W/m 10,5 km/h (2 Bft) 95,74 %
21.05.2017 10:18 18,4 C 25,6 C 22,8 C 65 % 0 lf 1026,7 hPa 0,0 l/m 2 min 0 min 491 W/m 10,5 km/h (2 Bft) 95,74 %
21.05.2017 10:20 18,4 C 26,1 C 22,8 C 64 % 0 lf 1026,7 hPa 0,0 l/m 2 min 0 min 498 W/m 10,5 km/h (2 Bft) 89,36 %
21.05.2017 10:22 18,5 C 26,1 C 23,3 C 64 % 0 lf 1026,8 hPa 0,0 l/m 2 min 0 min 516 W/m 10,5 km/h (2 Bft) 95,65 %
21.05.2017 10:24 18,6 C 25,6 C 23,3 C 63 % 0 lf 1026,7 hPa 0,0 l/m 2 min 0 min 504 W/m 10,5 km/h (2 Bft) 93,62 %
21.05.2017 10:26 18,6 C 25,0 C 23,3 C 64 % 0 lf 1026,7 hPa 0,0 l/m 2 min 0 min 501 W/m 10,5 km/h (2 Bft) 89,36 %
21.05.2017 10:28 18,7 C 26,1 C 23,3 C 65 % 0 lf 1026,7 hPa 0,0 l/m 2 min 0 min 508 W/m 6,3 km/h (2 Bft) 95,74 %
21.05.2017 10:30 18,7 C 25,0 C 23,3 C 64 % 0 lf 1026,7 hPa 0,0 l/m 2 min 0 min 515 W/m 12,6 km/h (3 Bft) 95,74 %
21.05.2017 10:32 18,7 C 25,0 C 23,3 C 64 % 0 lf 1026,7 hPa 0,0 l/m 2 min 0 min 503 W/m 10,5 km/h (2 Bft) 97,87 %
21.05.2017 10:34 18,8 C 24,4 C 23,3 C 63 % 0 lf 1026,7 hPa 0,0 l/m 2 min 0 min 491 W/m 8,4 km/h (2 Bft) 95,65 %
21.05.2017 10:36 18,8 C 23,9 C 23,9 C 62 % 0 lf 1026,7 hPa 0,0 l/m 2 min 0 min 498 W/m 8,4 km/h (2 Bft) 97,87 %
21.05.2017 10:38 18,8 C 25,0 C 24,4 C 64 % 0 lf 1026,7 hPa 0,0 l/m 2 min 0 min 523 W/m 4,2 km/h (1 Bft) 97,87 %
21.05.2017 10:40 18,9 C 25,6 C 25,0 C 63 % 0 lf 1026,7 hPa 0,0 l/m 2 min 0 min 521 W/m 10,5 km/h (2 Bft) 97,87 %
21.05.2017 10:42 18,9 C 27,2 C 24,4 C 62 % 0 lf 1026,6 hPa 0,0 l/m 2 min 0 min 545 W/m 6,3 km/h (2 Bft) 95,74 %
21.05.2017 10:44 19,0 C 28,3 C 24,4 C 63 % 0 lf 1026,7 hPa 0,0 l/m 2 min 0 min 602 W/m 6,3 km/h (2 Bft) 97,87 %
21.05.2017 10:46 19,1 C 28,3 C 24,4 C 63 % 0 lf 1026,7 hPa 0,0 l/m 2 min 0 min 588 W/m 10,5 km/h (2 Bft) 95,65 %
21.05.2017 10:48 19,2 C 27,8 C 25,0 C 62 % 0 lf 1026,6 hPa 0,0 l/m 2 min 0 min 586 W/m 12,6 km/h (3 Bft) 97,06 %
21.05.2017 10:50 19,2 C 27,2 C 25,0 C 61 % 0 lf 1026,7 hPa 0,0 l/m 2 min 0 min 577 W/m 12,6 km/h (3 Bft) 94,55 %
21.05.2017 10:52 19,3 C 26,1 C 25,6 C 61 % 0 lf 1026,6 hPa 0,0 l/m 2 min 0 min 561 W/m 8,4 km/h (2 Bft) 95,74 %
21.05.2017 10:54 19,3 C 25,0 C 26,1 C 59 % 0 lf 1026,7 hPa 0,0 l/m 2 min 0 min 597 W/m 10,5 km/h (2 Bft) 95,74 %
21.05.2017 10:56 19,4 C 25,6 C 26,1 C 59 % 0 lf 1026,6 hPa 0,0 l/m 2 min 0 min 601 W/m 6,3 km/h (2 Bft) 95,74 %
21.05.2017 10:58 19,4 C 26,7 C 25,6 C 59 % 0 lf 1026,7 hPa 0,0 l/m 2 min 0 min 614 W/m 4,2 km/h (1 Bft) 91,30 %
21.05.2017 11:00 19,4 C 28,3 C 25,6 C 58 % 0 lf 1026,7 hPa 0,0 l/m 2 min 0 min 662 W/m 4,2 km/h (1 Bft) 95,74 %
21.05.2017 11:02 19,5 C 29,4 C 26,7 C 58 % 0 lf 1026,7 hPa 0,0 l/m 2 min 0 min 686 W/m 6,3 km/h (2 Bft) 95,74 %
21.05.2017 11:04 19,6 C 30,0 C 26,7 C 60 % 0 lf 1026,6 hPa 0,0 l/m 2 min 0 min 708 W/m 6,3 km/h (2 Bft) 95,74 %
21.05.2017 11:06 19,7 C 29,4 C 26,7 C 60 % 0 lf 1026,6 hPa 0,0 l/m 2 min 0 min 706 W/m 14,6 km/h (3 Bft) 89,36 %
21.05.2017 11:08 19,9 C 29,4 C 26,7 C 59 % 0 lf 1026,6 hPa 0,0 l/m 2 min 0 min 693 W/m 12,6 km/h (3 Bft) 93,62 %
21.05.2017 11:10 20,0 C 27,2 C 26,1 C 57 % 0 lf 1026,6 hPa 0,0 l/m 2 min 0 min 668 W/m 12,6 km/h (3 Bft) 95,65 %
21.05.2017 11:12 20,1 C 27,2 C 26,1 C 57 % 0 lf 1026,6 hPa 0,0 l/m 2 min 0 min 652 W/m 10,5 km/h (2 Bft) 95,74 %
21.05.2017 11:14 20,1 C 26,1 C 25,0 C 56 % 0 lf 1026,6 hPa 0,0 l/m 2 min 0 min 645 W/m 12,6 km/h (3 Bft) 95,74 %
21.05.2017 11:16 20,2 C 27,8 C 23,9 C 56 % 0 lf 1026,5 hPa 0,0 l/m 2 min 0 min 625 W/m 10,5 km/h (2 Bft) 93,62 %
21.05.2017 11:18 20,2 C 26,1 C 23,3 C 55 % 0 lf 1026,5 hPa 0,0 l/m 2 min 0 min 608 W/m 8,4 km/h (2 Bft) 95,74 %
21.05.2017 11:20 20,1 C 26,1 C 21,7 C 55 % 0 lf 1026,5 hPa 0,0 l/m 2 min 0 min 620 W/m 8,4 km/h (2 Bft) 93,62 %
21.05.2017 11:22 20,2 C 27,2 C 22,2 C 58 % 0 lf 1026,5 hPa 0,0 l/m 2 min 0 min 653 W/m 4,2 km/h (1 Bft) 91,30 %
21.05.2017 11:24 20,2 C 27,8 C 22,8 C 57 % 0 lf 1026,5 hPa 0,0 l/m 2 min 0 min 674 W/m 10,5 km/h (2 Bft) 95,74 %
21.05.2017 11:26 20,2 C 27,2 C 23,3 C 56 % 0 lf 1026,7 hPa 0,0 l/m 2 min 0 min 687 W/m 14,6 km/h (3 Bft) 97,87 %
21.05.2017 11:28 20,3 C 28,3 C 24,4 C 55 % 0 lf 1026,6 hPa 0,0 l/m 2 min 0 min 705 W/m 12,6 km/h (3 Bft) 97,87 %
21.05.2017 11:30 20,3 C 27,8 C 25,0 C 55 % 0 lf 1026,6 hPa 0,0 l/m 2 min 0 min 696 W/m 8,4 km/h (2 Bft) 97,87 %
21.05.2017 11:32 20,3 C 26,7 C 26,1 C 54 % 0 lf 1026,6 hPa 0,0 l/m 2 min 0 min 718 W/m 10,5 km/h (2 Bft) 95,74 %
21.05.2017 11:34 20,3 C 28,9 C 27,2 C 57 % 0 lf 1026,5 hPa 0,0 l/m 2 min 0 min 763 W/m 6,3 km/h (2 Bft) 97,83 %
21.05.2017 11:36 20,4 C 30,6 C 27,2 C 57 % 0 lf 1026,6 hPa 0,0 l/m 2 min 0 min 777 W/m 14,6 km/h (3 Bft) 95,74 %
21.05.2017 11:38 20,4 C 28,9 C 26,7 C 55 % 0 lf 1026,5 hPa 0,0 l/m 2 min 0 min 760 W/m 16,7 km/h (3 Bft) 97,87 %
21.05.2017 11:40 20,5 C 27,8 C 26,1 C 55 % 0 lf 1026,6 hPa 0,0 l/m 2 min 0 min 741 W/m 14,6 km/h (3 Bft) 97,87 %
21.05.2017 11:42 20,5 C 27,8 C 26,1 C 55 % 0 lf 1026,5 hPa 0,0 l/m 2 min 0 min 723 W/m 8,4 km/h (2 Bft) 100,00 %
21.05.2017 11:44 20,6 C 27,8 C 26,7 C 56 % 0 lf 1026,5 hPa 0,0 l/m 2 min 0 min 761 W/m 8,4 km/h (2 Bft) 100,00 %
21.05.2017 11:46 20,6 C 27,8 C 27,2 C 55 % 0 lf 1026,5 hPa 0,0 l/m 2 min 0 min 798 W/m 10,5 km/h (2 Bft) 100,00 %
21.05.2017 11:48 20,6 C 27,2 C 28,3 C 55 % 0 lf 1026,5 hPa 0,0 l/m 2 min 0 min 800 W/m 12,6 km/h (3 Bft) 100,00 %
21.05.2017 11:50 20,7 C 29,4 C 27,8 C 55 % 0 lf 1026,5 hPa 0,0 l/m 2 min 0 min 803 W/m 14,6 km/h (3 Bft) 95,74 %
21.05.2017 11:52 20,8 C 29,4 C 27,2 C 53 % 0 lf 1026,5 hPa 0,0 l/m 2 min 0 min 771 W/m 6,3 km/h (2 Bft) 100,00 %
21.05.2017 11:54 20,8 C 30,0 C 27,2 C 53 % 0 lf 1026,5 hPa 0,0 l/m 2 min 0 min 754 W/m 8,4 km/h (2 Bft) 100,00 %
21.05.2017 11:56 20,8 C 30,0 C 26,7 C 54 % 0 lf 1026,4 hPa 0,0 l/m 2 min 0 min 771 W/m 12,6 km/h (3 Bft) 95,74 %
21.05.2017 11:58 20,8 C 26,7 C 25,0 C 54 % 0 lf 1026,4 hPa 0,0 l/m 2 min 0 min 775 W/m 14,6 km/h (3 Bft) 97,83 %
21.05.2017 12:00 20,8 C 26,7 C 25,6 C 54 % 0 lf 1026,4 hPa 0,0 l/m 2 min 0 min 765 W/m 10,5 km/h (2 Bft) 95,74 %
21.05.2017 12:02 20,7 C 25,0 C 25,0 C 54 % 0 lf 1026,4 hPa 0,0 l/m 2 min 0 min 705 W/m 18,8 km/h (3 Bft) 97,87 %
21.05.2017 12:04 20,7 C 25,6 C 25,6 C 54 % 0 lf 1026,3 hPa 0,0 l/m 2 min 0 min 692 W/m 14,6 km/h (3 Bft) 100,00 %
21.05.2017 12:06 20,6 C 25,6 C 26,1 C 55 % 0 lf 1026,2 hPa 0,0 l/m 2 min 0 min 720 W/m 6,3 km/h (2 Bft) 100,00 %
21.05.2017 12:08 20,6 C 25,6 C 25,6 C 55 % 0 lf 1026,3 hPa 0,0 l/m 2 min 0 min 667 W/m 12,6 km/h (3 Bft) 100,00 %
21.05.2017 12:10 20,5 C 25,0 C 26,1 C 54 % 0 lf 1026,3 hPa 0,0 l/m 2 min 0 min 604 W/m 18,8 km/h (3 Bft) 100,00 %
21.05.2017 12:12 20,4 C 23,9 C 26,1 C 52 % 0 lf 1026,3 hPa 0,0 l/m 2 min 0 min 511 W/m 10,5 km/h (2 Bft) 97,87 %
21.05.2017 12:14 20,4 C 26,1 C 26,1 C 52 % 0 lf 1026,3 hPa 0,0 l/m 0 min 0 min 347 W/m 12,6 km/h (3 Bft) 100,00 %
21.05.2017 12:16 20,4 C 24,4 C 24,4 C 55 % 0 lf 1026,3 hPa 0,0 l/m 0 min 0 min 290 W/m 10,5 km/h (2 Bft) 100,00 %
21.05.2017 12:18 20,4 C 23,3 C 23,3 C 54 % 0 lf 1026,3 hPa 0,0 l/m 0 min 0 min 262 W/m 12,6 km/h (3 Bft) 97,87 %
21.05.2017 12:20 20,4 C 23,9 C 22,2 C 55 % 0 lf 1026,3 hPa 0,0 l/m 0 min 0 min 279 W/m 8,4 km/h (2 Bft) 100,00 %
21.05.2017 12:22 20,4 C 25,0 C 23,3 C 55 % 0 lf 1026,3 hPa 0,0 l/m 0 min 0 min 363 W/m 10,5 km/h (2 Bft) 97,87 %
21.05.2017 12:24 20,4 C 26,1 C 24,4 C 55 % 0 lf 1026,3 hPa 0,0 l/m 2 min 0 min 459 W/m 6,3 km/h (2 Bft) 100,00 %
21.05.2017 12:26 20,4 C 27,2 C 25,6 C 56 % 0 lf 1026,3 hPa 0,0 l/m 2 min 0 min 545 W/m 14,6 km/h (3 Bft) 97,87 %
21.05.2017 12:28 20,5 C 27,8 C 26,1 C 57 % 0 lf 1026,3 hPa 0,0 l/m 2 min 0 min 687 W/m 14,6 km/h (3 Bft) 100,00 %
21.05.2017 12:30 20,6 C 28,9 C 25,6 C 57 % 0 lf 1026,3 hPa 0,0 l/m 2 min 0 min 732 W/m 10,5 km/h (2 Bft) 97,87 %
21.05.2017 12:32 20,7 C 28,3 C 25,6 C 56 % 0 lf 1026,2 hPa 0,0 l/m 2 min 0 min 735 W/m 12,6 km/h (3 Bft) 100,00 %
21.05.2017 12:34 20,8 C 27,2 C 25,6 C 55 % 0 lf 1026,3 hPa 0,0 l/m 2 min 0 min 777 W/m 12,6 km/h (3 Bft) 100,00 %
21.05.2017 12:36 20,8 C 27,2 C 24,4 C 55 % 0 lf 1026,2 hPa 0,0 l/m 2 min 0 min 780 W/m 12,6 km/h (3 Bft) 100,00 %
21.05.2017 12:38 20,8 C 27,2 C 24,4 C 53 % 0 lf 1026,2 hPa 0,0 l/m 2 min 0 min 736 W/m 10,5 km/h (2 Bft) 97,87 %
21.05.2017 12:40 20,9 C 26,7 C 24,4 C 53 % 0 lf 1026,2 hPa 0,0 l/m 2 min 0 min 753 W/m 16,7 km/h (3 Bft) 100,00 %
21.05.2017 12:42 20,9 C 25,6 C 24,4 C 52 % 0 lf 1026,2 hPa 0,0 l/m 2 min 0 min 776 W/m 12,6 km/h (3 Bft) 93,62 %
21.05.2017 12:44 20,9 C 27,2 C 23,9 C 52 % 0 lf 1026,3 hPa 0,0 l/m 2 min 0 min 776 W/m 6,3 km/h (2 Bft) 95,65 %
21.05.2017 12:46 21,0 C 28,3 C 24,4 C 54 % 0 lf 1026,2 hPa 0,0 l/m 2 min 0 min 736 W/m 18,8 km/h (3 Bft) 97,87 %
21.05.2017 12:48 21,0 C 27,8 C 23,9 C 54 % 0 lf 1026,2 hPa 0,0 l/m 2 min 0 min 682 W/m 18,8 km/h (3 Bft) 95,74 %
21.05.2017 12:50 21,1 C 27,2 C 23,9 C 54 % 0 lf 1026,2 hPa 0,0 l/m 2 min 0 min 695 W/m 18,8 km/h (3 Bft) 97,87 %
21.05.2017 12:52 21,1 C 26,1 C 23,9 C 54 % 0 lf 1026,1 hPa 0,0 l/m 2 min 0 min 662 W/m 18,8 km/h (3 Bft) 93,62 %
21.05.2017 12:54 21,1 C 24,4 C 23,3 C 52 % 0 lf 1026,1 hPa 0,0 l/m 2 min 0 min 656 W/m 23,0 km/h (4 Bft) 95,74 %
21.05.2017 12:56 21,0 C 25,0 C 23,3 C 53 % 0 lf 1026,1 hPa 0,0 l/m 2 min 0 min 661 W/m 18,8 km/h (3 Bft) 97,83 %
21.05.2017 12:58 21,0 C 25,0 C 23,3 C 52 % 0 lf 1026,1 hPa 0,0 l/m 2 min 0 min 635 W/m 16,7 km/h (3 Bft) 91,49 %
21.05.2017 13:00 21,0 C 26,1 C 23,9 C 54 % 0 lf 1026,1 hPa 0,0 l/m 2 min 0 min 661 W/m 14,6 km/h (3 Bft) 97,87 %
21.05.2017 13:02 21,0 C 26,7 C 23,9 C 53 % 0 lf 1026,1 hPa 0,0 l/m 2 min 0 min 679 W/m 14,6 km/h (3 Bft) 95,74 %
21.05.2017 13:04 21,1 C 27,2 C 23,9 C 52 % 0 lf 1026,1 hPa 0,0 l/m 2 min 0 min 742 W/m 8,4 km/h (2 Bft) 95,74 %
21.05.2017 13:06 21,1 C 27,8 C 24,4 C 54 % 0 lf 1026,1 hPa 0,0 l/m 2 min 0 min 750 W/m 16,7 km/h (3 Bft) 95,74 %
21.05.2017 13:08 21,2 C 26,7 C 23,9 C 52 % 0 lf 1026,1 hPa 0,0 l/m 2 min 0 min 745 W/m 16,7 km/h (3 Bft) 93,48 %
21.05.2017 13:10 21,2 C 27,2 C 25,0 C 53 % 0 lf 1026,0 hPa 0,0 l/m 2 min 0 min 746 W/m 12,6 km/h (3 Bft) 93,62 %
21.05.2017 13:12 21,3 C 25,0 C 24,4 C 52 % 0 lf 1026,0 hPa 0,0 l/m 0 min 0 min 412 W/m 14,6 km/h (3 Bft) 93,62 %
21.05.2017 13:14 21,3 C 24,4 C 23,9 C 53 % 0 lf 1026,0 hPa 0,0 l/m 0 min 0 min 319 W/m 14,6 km/h (3 Bft) 91,49 %
21.05.2017 13:16 21,3 C 23,9 C 23,3 C 53 % 0 lf 1026,0 hPa 0,0 l/m 0 min 0 min 329 W/m 10,5 km/h (2 Bft) 89,36 %
21.05.2017 13:18 21,2 C 23,3 C 23,3 C 50 % 0 lf 1026,0 hPa 0,0 l/m 0 min 0 min 361 W/m 12,6 km/h (3 Bft) 91,49 %
21.05.2017 13:20 21,2 C 22,8 C 22,8 C 50 % 0 lf 1026,0 hPa 0,0 l/m 2 min 0 min 587 W/m 18,8 km/h (3 Bft) 89,13 %
21.05.2017 13:22 21,1 C 22,8 C 22,8 C 50 % 0 lf 1026,0 hPa 0,0 l/m 0 min 0 min 351 W/m 18,8 km/h (3 Bft) 91,49 %
21.05.2017 13:24 21,0 C 23,3 C 22,2 C 49 % 0 lf 1025,9 hPa 0,0 l/m 2 min 0 min 475 W/m 12,6 km/h (3 Bft) 87,23 %
21.05.2017 13:26 20,9 C 25,0 C 22,8 C 51 % 0 lf 1025,9 hPa 0,0 l/m 2 min 0 min 701 W/m 10,5 km/h (2 Bft) 91,49 %
21.05.2017 13:28 20,9 C 25,6 C 22,2 C 49 % 0 lf 1025,9 hPa 0,0 l/m 2 min 0 min 673 W/m 10,5 km/h (2 Bft) 91,49 %
21.05.2017 13:30 20,9 C 26,1 C 21,7 C 48 % 0 lf 1025,9 hPa 0,0 l/m 2 min 0 min 494 W/m 8,4 km/h (2 Bft) 95,74 %
21.05.2017 13:32 20,9 C 25,0 C 22,2 C 49 % 0 lf 1025,9 hPa 0,0 l/m 0 min 0 min 318 W/m 12,6 km/h (3 Bft) 93,48 %
21.05.2017 13:34 20,8 C 23,3 C 22,2 C 48 % 0 lf 1025,9 hPa 0,0 l/m 0 min 0 min 314 W/m 10,5 km/h (2 Bft) 91,49 %
21.05.2017 13:36 20,8 C 23,9 C 22,2 C 48 % 0 lf 1025,8 hPa 0,0 l/m 0 min 0 min 331 W/m 10,5 km/h (2 Bft) 91,49 %
21.05.2017 13:38 20,8 C 26,1 C 22,2 C 48 % 0 lf 1025,8 hPa 0,0 l/m 0 min 0 min 412 W/m 4,2 km/h (1 Bft) 93,62 %
21.05.2017 13:40 20,8 C 26,1 C 22,2 C 48 % 0 lf 1025,7 hPa 0,0 l/m 2 min 0 min 790 W/m 10,5 km/h (2 Bft) 91,49 %
21.05.2017 13:42 20,7 C 26,1 C 22,8 C 49 % 0 lf 1025,8 hPa 0,0 l/m 2 min 0 min 799 W/m 10,5 km/h (2 Bft) 89,13 %
21.05.2017 13:44 20,7 C 25,6 C 23,3 C 49 % 0 lf 1025,8 hPa 0,0 l/m 2 min 0 min 796 W/m 14,6 km/h (3 Bft) 93,62 %
21.05.2017 13:46 20,7 C 26,1 C 23,3 C 49 % 0 lf 1025,8 hPa 0,0 l/m 2 min 0 min 759 W/m 12,6 km/h (3 Bft) 91,49 %
21.05.2017 13:48 20,7 C 26,1 C 23,3 C 49 % 0 lf 1025,7 hPa 0,0 l/m 2 min 0 min 734 W/m 10,5 km/h (2 Bft) 91,84 %
21.05.2017 13:50 20,8 C 26,1 C 23,9 C 51 % 0 lf 1025,7 hPa 0,0 l/m 2 min 0 min 751 W/m 23,0 km/h (4 Bft) 91,49 %
21.05.2017 13:52 20,8 C 26,1 C 23,9 C 51 % 0 lf 1025,7 hPa 0,0 l/m 2 min 0 min 731 W/m 18,8 km/h (3 Bft) 95,74 %
21.05.2017 13:54 20,9 C 26,1 C 24,4 C 49 % 0 lf 1025,7 hPa 0,0 l/m 2 min 0 min 714 W/m 18,8 km/h (3 Bft) 95,74 %
21.05.2017 13:56 20,9 C 26,7 C 25,0 C 50 % 0 lf 1025,6 hPa 0,0 l/m 2 min 0 min 762 W/m 16,7 km/h (3 Bft) 93,48 %
21.05.2017 13:58 21,0 C 26,7 C 25,6 C 50 % 0 lf 1025,6 hPa 0,0 l/m 2 min 0 min 761 W/m 12,6 km/h (3 Bft) 97,87 %
21.05.2017 14:00 21,0 C 25,6 C 25,6 C 50 % 0 lf 1025,7 hPa 0,0 l/m 2 min 0 min 706 W/m 16,7 km/h (3 Bft) 100,00 %
21.05.2017 14:02 21,0 C 26,1 C 25,6 C 50 % 0 lf 1025,7 hPa 0,0 l/m 2 min 0 min 669 W/m 16,7 km/h (3 Bft) 100,00 %
21.05.2017 14:04 21,1 C 27,2 C 26,1 C 51 % 0 lf 1025,6 hPa 0,0 l/m 2 min 0 min 697 W/m 14,6 km/h (3 Bft) 97,87 %
21.05.2017 14:06 21,2 C 28,3 C 26,1 C 50 % 0 lf 1025,7 hPa 0,0 l/m 2 min 0 min 767 W/m 10,5 km/h (2 Bft) 97,87 %
21.05.2017 14:08 21,2 C 28,9 C 26,7 C 49 % 0 lf 1025,6 hPa 0,0 l/m 2 min 0 min 749 W/m 6,3 km/h (2 Bft) 97,83 %
21.05.2017 14:10 21,3 C 29,4 C 26,1 C 49 % 0 lf 1025,6 hPa 0,0 l/m 2 min 0 min 706 W/m 8,4 km/h (2 Bft) 97,87 %
21.05.2017 14:12 21,3 C 29,4 C 26,7 C 50 % 0 lf 1025,5 hPa 0,0 l/m 2 min 0 min 547 W/m 6,3 km/h (2 Bft) 95,74 %
21.05.2017 14:14 21,3 C 26,1 C 26,1 C 47 % 0 lf 1025,6 hPa 0,0 l/m 2 min 0 min 513 W/m 8,4 km/h (2 Bft) 100,00 %
21.05.2017 14:16 21,3 C 25,0 C 25,6 C 46 % 0 lf 1025,5 hPa 0,0 l/m 0 min 0 min 384 W/m 8,4 km/h (2 Bft) 100,00 %
21.05.2017 14:18 21,3 C 23,9 C 24,4 C 47 % 0 lf 1025,5 hPa 0,0 l/m 0 min 0 min 354 W/m 10,5 km/h (2 Bft) 97,87 %
21.05.2017 14:20 21,2 C 25,0 C 24,4 C 46 % 0 lf 1025,5 hPa 0,0 l/m 0 min 0 min 362 W/m 4,2 km/h (1 Bft) 100,00 %
21.05.2017 14:22 21,2 C 25,6 C 23,9 C 47 % 0 lf 1025,5 hPa 0,0 l/m 0 min 0 min 382 W/m 6,3 km/h (2 Bft) 97,87 %
21.05.2017 14:24 21,2 C 25,0 C 23,9 C 48 % 0 lf 1025,4 hPa 0,0 l/m 0 min 0 min 395 W/m 10,5 km/h (2 Bft) 95,74 %
21.05.2017 14:26 21,2 C 25,0 C 23,9 C 48 % 0 lf 1025,4 hPa 0,0 l/m 0 min 0 min 367 W/m 8,4 km/h (2 Bft) 97,87 %
21.05.2017 14:28 21,2 C 24,4 C 23,3 C 48 % 0 lf 1025,4 hPa 0,0 l/m 0 min 0 min 359 W/m 6,3 km/h (2 Bft) 100,00 %
21.05.2017 14:30 21,1 C 24,4 C 23,3 C 47 % 0 lf 1025,4 hPa 0,0 l/m 0 min 0 min 346 W/m 6,3 km/h (2 Bft) 100,00 %
21.05.2017 14:32 21,1 C 23,9 C 23,3 C 48 % 0 lf 1025,4 hPa 0,0 l/m 0 min 0 min 352 W/m 8,4 km/h (2 Bft) 97,83 %
21.05.2017 14:34 21,1 C 23,9 C 23,9 C 50 % 0 lf 1025,4 hPa 0,0 l/m 0 min 0 min 386 W/m 8,4 km/h (2 Bft) 97,87 %
21.05.2017 14:36 21,1 C 25,0 C 25,0 C 50 % 0 lf 1025,3 hPa 0,0 l/m 2 min 0 min 461 W/m 10,5 km/h (2 Bft) 97,87 %
21.05.2017 14:38 21,1 C 26,1 C 26,7 C 50 % 0 lf 1025,3 hPa 0,0 l/m 2 min 0 min 677 W/m 12,6 km/h (3 Bft) 97,87 %
21.05.2017 14:40 21,1 C 25,0 C 26,7 C 48 % 0 lf 1025,2 hPa 0,0 l/m 2 min 0 min 616 W/m 10,5 km/h (2 Bft) 97,87 %
21.05.2017 14:42 21,2 C 25,0 C 26,7 C 49 % 0 lf 1025,2 hPa 0,0 l/m 2 min 0 min 540 W/m 6,3 km/h (2 Bft) 97,87 %
21.05.2017 14:44 21,2 C 25,6 C 26,1 C 49 % 0 lf 1025,1 hPa 0,0 l/m 2 min 0 min 465 W/m 6,3 km/h (2 Bft) 100,00 %
21.05.2017 14:46 21,2 C 24,4 C 25,6 C 49 % 0 lf 1025,1 hPa 0,0 l/m 0 min 0 min 332 W/m 6,3 km/h (2 Bft) 97,87 %
21.05.2017 14:48 21,2 C 25,0 C 25,0 C 48 % 0 lf 1025,1 hPa 0,0 l/m 2 min 0 min 434 W/m 6,3 km/h (2 Bft) 100,00 %
21.05.2017 14:50 21,2 C 25,6 C 25,0 C 49 % 0 lf 1025,1 hPa 0,0 l/m 2 min 0 min 532 W/m 12,6 km/h (3 Bft) 100,00 %
21.05.2017 14:53 21,3 C 26,7 C 26,1 C 48 % 0 lf 1025,1 hPa 0,0 l/m 3 min 0 min 604 W/m 10,5 km/h (2 Bft) 98,59 %
21.05.2017 14:54 21,3 C 26,1 C 26,7 C 48 % 0 lf 1025,1 hPa 0,0 l/m 1 min 0 min 668 W/m 8,4 km/h (2 Bft) 100,00 %
21.05.2017 14:58 21,4 C 26,1 C 27,2 C 48 % 0 lf 1025,1 hPa 0,0 l/m 4 min 0 min 683 W/m 14,6 km/h (3 Bft) 97,87 %
21.05.2017 14:59 21,4 C 26,7 C 27,2 C 48 % 0 lf 1025,1 hPa 0,0 l/m 1 min 0 min 720 W/m 18,8 km/h (3 Bft) 100,00 %
21.05.2017 15:00 21,4 C 26,1 C 26,7 C 47 % 0 lf 1025,1 hPa 0,0 l/m 1 min 0 min 694 W/m 20,9 km/h (4 Bft) 100,00 %
21.05.2017 15:05 21,5 C 23,9 C 25,0 C 48 % 0 lf 1025,1 hPa 0,0 l/m 0 min 0 min 358 W/m 18,8 km/h (3 Bft) 100,00 %
21.05.2017 15:10 21,4 C 23,3 C 23,9 C 47 % 0 lf 1025,0 hPa 0,0 l/m 0 min 0 min 347 W/m 16,7 km/h (3 Bft) 100,00 %
21.05.2017 15:12 21,4 C 23,3 C 23,9 C 46 % 0 lf 1024,9 hPa 0,0 l/m 2 min 0 min 410 W/m 14,6 km/h (3 Bft) 100,00 %
21.05.2017 15:14 21,4 C 23,3 C 23,3 C 46 % 0 lf 1025,0 hPa 0,0 l/m 2 min 0 min 468 W/m 12,6 km/h (3 Bft) 93,48 %
21.05.2017 15:16 21,3 C 22,8 C 23,3 C 46 % 0 lf 1024,9 hPa 0,0 l/m 0 min 0 min 318 W/m 10,5 km/h (2 Bft) 95,74 %
21.05.2017 15:18 21,3 C 23,3 C 22,8 C 48 % 0 lf 1025,0 hPa 0,0 l/m 0 min 0 min 309 W/m 16,7 km/h (3 Bft) 100,00 %
21.05.2017 15:20 21,3 C 22,8 C 22,8 C 47 % 0 lf 1024,9 hPa 0,0 l/m 0 min 0 min 303 W/m 12,6 km/h (3 Bft) 100,00 %
21.05.2017 15:22 21,2 C 22,2 C 22,2 C 46 % 0 lf 1025,0 hPa 0,0 l/m 0 min 0 min 311 W/m 14,6 km/h (3 Bft) 97,87 %
21.05.2017 15:24 21,1 C 21,7 C 22,2 C 47 % 0 lf 1025,0 hPa 0,0 l/m 0 min 0 min 346 W/m 14,6 km/h (3 Bft) 100,00 %
21.05.2017 15:26 21,0 C 22,2 C 22,2 C 48 % 0 lf 1025,0 hPa 0,0 l/m 0 min 0 min 375 W/m 14,6 km/h (3 Bft) 93,62 %
21.05.2017 15:28 20,9 C 22,2 C 22,8 C 48 % 0 lf 1024,9 hPa 0,0 l/m 0 min 0 min 325 W/m 12,6 km/h (3 Bft) 97,87 %
21.05.2017 15:30 20,9 C 22,8 C 22,2 C 48 % 0 lf 1024,9 hPa 0,0 l/m 0 min 0 min 301 W/m 14,6 km/h (3 Bft) 97,87 %
21.05.2017 15:32 20,9 C 22,8 C 22,2 C 49 % 0 lf 1025,0 hPa 0,0 l/m 0 min 0 min 294 W/m 14,6 km/h (3 Bft) 97,92 %
21.05.2017 15:34 20,8 C 22,2 C 22,2 C 48 % 0 lf 1025,0 hPa 0,0 l/m 0 min 0 min 288 W/m 6,3 km/h (2 Bft) 97,87 %
21.05.2017 15:36 20,8 C 22,8 C 22,2 C 48 % 0 lf 1024,9 hPa 0,0 l/m 0 min 0 min 287 W/m 10,5 km/h (2 Bft) 95,92 %
21.05.2017 15:38 20,8 C 22,8 C 22,2 C 48 % 0 lf 1024,9 hPa 0,0 l/m 0 min 0 min 312 W/m 14,6 km/h (3 Bft) 95,74 %
21.05.2017 15:40 20,8 C 22,2 C 22,2 C 48 % 0 lf 1024,9 hPa 0,0 l/m 0 min 0 min 342 W/m 12,6 km/h (3 Bft) 97,87 %
21.05.2017 15:42 20,7 C 22,8 C 23,3 C 48 % 0 lf 1024,9 hPa 0,0 l/m 2 min 0 min 468 W/m 14,6 km/h (3 Bft) 97,14 %
21.05.2017 15:44 20,7 C 23,3 C 23,9 C 48 % 0 lf 1025,0 hPa 0,0 l/m 2 min 0 min 514 W/m 10,5 km/h (2 Bft) 93,62 %
21.05.2017 15:46 20,8 C 23,3 C 23,3 C 48 % 0 lf 1024,9 hPa 0,0 l/m 2 min 0 min 414 W/m 14,6 km/h (3 Bft) 91,49 %
21.05.2017 15:48 20,8 C 23,3 C 23,3 C 49 % 0 lf 1024,9 hPa 0,0 l/m 0 min 0 min 323 W/m 10,5 km/h (2 Bft) 85,11 %
21.05.2017 15:50 20,8 C 23,3 C 23,3 C 48 % 0 lf 1024,9 hPa 0,0 l/m 0 min 0 min 327 W/m 10,5 km/h (2 Bft) 89,83 %
21.05.2017 15:52 20,8 C 23,9 C 23,3 C 49 % 0 lf 1024,8 hPa 0,0 l/m 0 min 0 min 351 W/m 10,5 km/h (2 Bft) 94,29 %
21.05.2017 15:54 20,9 C 24,4 C 24,4 C 48 % 0 lf 1024,8 hPa 0,0 l/m 2 min 0 min 547 W/m 10,5 km/h (2 Bft) 93,48 %
21.05.2017 15:56 20,9 C 24,4 C 25,6 C 47 % 0 lf 1024,8 hPa 0,0 l/m 2 min 0 min 551 W/m 12,6 km/h (3 Bft) 89,36 %
21.05.2017 15:58 21,0 C 25,6 C 26,1 C 49 % 0 lf 1024,8 hPa 0,0 l/m 2 min 0 min 542 W/m 8,4 km/h (2 Bft) 93,62 %
21.05.2017 16:00 21,0 C 25,6 C 25,6 C 46 % 0 lf 1024,8 hPa 0,0 l/m 2 min 0 min 512 W/m 6,3 km/h (2 Bft) 91,67 %
21.05.2017 16:02 21,1 C 25,6 C 25,6 C 46 % 0 lf 1024,8 hPa 0,0 l/m 2 min 0 min 453 W/m 12,6 km/h (3 Bft) 90,91 %
21.05.2017 16:04 21,2 C 25,0 C 25,0 C 46 % 0 lf 1024,8 hPa 0,0 l/m 2 min 0 min 449 W/m 12,6 km/h (3 Bft) 90,00 %
21.05.2017 16:06 21,2 C 25,0 C 25,0 C 46 % 0 lf 1024,7 hPa 0,0 l/m 2 min 0 min 435 W/m 10,5 km/h (2 Bft) 95,65 %
21.05.2017 16:08 21,2 C 25,0 C 25,0 C 46 % 0 lf 1024,7 hPa 0,0 l/m 2 min 0 min 459 W/m 10,5 km/h (2 Bft) 93,62 %
21.05.2017 16:10 21,3 C 24,4 C 25,6 C 47 % 0 lf 1024,7 hPa 0,0 l/m 2 min 0 min 469 W/m 16,7 km/h (3 Bft) 93,62 %
21.05.2017 16:12 21,3 C 23,9 C 25,6 C 45 % 0 lf 1024,7 hPa 0,0 l/m 2 min 0 min 477 W/m 14,6 km/h (3 Bft) 93,62 %
21.05.2017 16:14 21,3 C 23,3 C 25,0 C 44 % 0 lf 1024,7 hPa 0,0 l/m 2 min 0 min 501 W/m 10,5 km/h (2 Bft) 95,74 %
21.05.2017 16:16 21,3 C 23,9 C 25,6 C 45 % 0 lf 1024,7 hPa 0,0 l/m 2 min 0 min 499 W/m 8,4 km/h (2 Bft) 93,48 %
21.05.2017 16:18 21,4 C 23,9 C 26,1 C 45 % 0 lf 1024,6 hPa 0,0 l/m 2 min 0 min 497 W/m 10,5 km/h (2 Bft) 95,74 %
21.05.2017 16:20 21,4 C 23,3 C 26,1 C 43 % 0 lf 1024,6 hPa 0,0 l/m 2 min 0 min 505 W/m 12,6 km/h (3 Bft) 94,34 %
21.05.2017 16:22 21,4 C 23,3 C 25,6 C 44 % 0 lf 1024,5 hPa 0,0 l/m 2 min 0 min 476 W/m 8,4 km/h (2 Bft) 90,24 %
21.05.2017 16:24 21,4 C 23,3 C 25,6 C 45 % 0 lf 1024,5 hPa 0,0 l/m 2 min 0 min 477 W/m 6,3 km/h (2 Bft) 93,62 %
21.05.2017 16:26 21,4 C 23,9 C 24,4 C 45 % 0 lf 1024,5 hPa 0,0 l/m 2 min 0 min 472 W/m 12,6 km/h (3 Bft) 95,74 %
21.05.2017 16:28 21,5 C 24,4 C 23,9 C 45 % 0 lf 1024,4 hPa 0,0 l/m 2 min 0 min 434 W/m 8,4 km/h (2 Bft) 93,48 %
21.05.2017 16:30 21,5 C 23,3 C 23,9 C 43 % 0 lf 1024,4 hPa 0,0 l/m 2 min 0 min 420 W/m 10,5 km/h (2 Bft) 93,62 %
21.05.2017 16:32 21,5 C 23,9 C 22,8 C 43 % 0 lf 1024,4 hPa 0,0 l/m 2 min 0 min 463 W/m 8,4 km/h (2 Bft) 92,59 %
21.05.2017 16:34 21,6 C 23,9 C 23,3 C 45 % 0 lf 1024,4 hPa 0,0 l/m 2 min 0 min 545 W/m 8,4 km/h (2 Bft) 95,65 %
21.05.2017 16:36 21,6 C 23,9 C 23,3 C 45 % 0 lf 1024,3 hPa 0,0 l/m 2 min 0 min 556 W/m 10,5 km/h (2 Bft) 94,00 %
21.05.2017 16:38 21,6 C 23,9 C 23,3 C 46 % 0 lf 1024,3 hPa 0,0 l/m 2 min 0 min 551 W/m 14,6 km/h (3 Bft) 95,74 %
21.05.2017 16:40 21,6 C 23,9 C 23,9 C 45 % 0 lf 1024,2 hPa 0,0 l/m 2 min 0 min 589 W/m 14,6 km/h (3 Bft) 93,62 %
21.05.2017 16:42 21,7 C 23,3 C 23,9 C 44 % 0 lf 1024,2 hPa 0,0 l/m 2 min 0 min 595 W/m 16,7 km/h (3 Bft) 97,87 %
21.05.2017 16:44 21,7 C 22,8 C 23,9 C 43 % 0 lf 1024,2 hPa 0,0 l/m 2 min 0 min 588 W/m 14,6 km/h (3 Bft) 97,14 %
21.05.2017 16:46 21,7 C 23,3 C 23,3 C 43 % 0 lf 1024,2 hPa 0,0 l/m 2 min 0 min 540 W/m 6,3 km/h (2 Bft) 98,21 %
21.05.2017 16:48 21,7 C 23,3 C 23,9 C 45 % 0 lf 1024,1 hPa 0,0 l/m 2 min 0 min 557 W/m 16,7 km/h (3 Bft) 95,74 %
21.05.2017 16:50 21,7 C 22,8 C 23,9 C 43 % 0 lf 1024,1 hPa 0,0 l/m 2 min 0 min 566 W/m 12,6 km/h (3 Bft) 95,74 %
21.05.2017 16:52 21,7 C 23,3 C 23,9 C 44 % 0 lf 1024,1 hPa 0,0 l/m 2 min 0 min 541 W/m 14,6 km/h (3 Bft) 97,87 %
21.05.2017 16:54 21,7 C 23,9 C 23,3 C 43 % 0 lf 1024,1 hPa 0,0 l/m 2 min 0 min 518 W/m 8,4 km/h (2 Bft) 97,87 %
21.05.2017 16:56 21,7 C 23,9 C 23,9 C 43 % 0 lf 1024,2 hPa 0,0 l/m 2 min 0 min 520 W/m 8,4 km/h (2 Bft) 95,74 %
21.05.2017 16:58 21,8 C 24,4 C 23,3 C 44 % 0 lf 1024,1 hPa 0,0 l/m 2 min 0 min 507 W/m 8,4 km/h (2 Bft) 95,65 %
21.05.2017 17:00 21,9 C 25,0 C 23,9 C 44 % 0 lf 1024,1 hPa 0,0 l/m 2 min 0 min 507 W/m 6,3 km/h (2 Bft) 95,35 %
21.05.2017 17:02 21,9 C 24,4 C 23,9 C 43 % 0 lf 1024,1 hPa 0,0 l/m 2 min 0 min 536 W/m 6,3 km/h (2 Bft) 97,96 %
21.05.2017 17:04 22,0 C 23,3 C 23,3 C 42 % 0 lf 1024,1 hPa 0,0 l/m 2 min 0 min 505 W/m 4,2 km/h (1 Bft) 98,00 %
21.05.2017 17:06 22,0 C 22,8 C 23,3 C 42 % 0 lf 1024,1 hPa 0,0 l/m 2 min 0 min 494 W/m 10,5 km/h (2 Bft) 97,14 %
21.05.2017 17:08 22,0 C 23,3 C 23,3 C 44 % 0 lf 1024,0 hPa 0,0 l/m 2 min 0 min 487 W/m 12,6 km/h (3 Bft) 97,87 %
21.05.2017 17:10 22,0 C 22,8 C 22,8 C 42 % 0 lf 1024,0 hPa 0,0 l/m 2 min 0 min 478 W/m 8,4 km/h (2 Bft) 97,87 %
21.05.2017 17:12 22,0 C 22,2 C 22,2 C 42 % 0 lf 1024,0 hPa 0,0 l/m 2 min 0 min 449 W/m 8,4 km/h (2 Bft) 97,87 %
21.05.2017 17:14 21,9 C 22,2 C 22,2 C 44 % 0 lf 1023,9 hPa 0,0 l/m 2 min 0 min 438 W/m 8,4 km/h (2 Bft) 93,62 %
21.05.2017 17:16 21,9 C 22,8 C 22,2 C 45 % 0 lf 1023,9 hPa 0,0 l/m 2 min 0 min 437 W/m 8,4 km/h (2 Bft) 97,83 %
21.05.2017 17:18 21,9 C 23,3 C 22,2 C 44 % 0 lf 1024,0 hPa 0,0 l/m 2 min 0 min 466 W/m 8,4 km/h (2 Bft) 97,87 %
21.05.2017 17:20 21,9 C 23,3 C 22,2 C 45 % 0 lf 1024,0 hPa 0,0 l/m 2 min 0 min 483 W/m 8,4 km/h (2 Bft) 100,00 %
21.05.2017 17:22 21,9 C 23,9 C 22,2 C 44 % 0 lf 1023,9 hPa 0,0 l/m 2 min 0 min 477 W/m 4,2 km/h (1 Bft) 97,14 %
21.05.2017 17:24 22,0 C 23,9 C 22,2 C 43 % 0 lf 1023,8 hPa 0,0 l/m 2 min 0 min 464 W/m 4,2 km/h (1 Bft) 97,87 %
21.05.2017 17:26 22,0 C 23,9 C 21,7 C 42 % 0 lf 1023,8 hPa 0,0 l/m 2 min 0 min 483 W/m 6,3 km/h (2 Bft) 97,87 %
21.05.2017 17:28 22,0 C 23,9 C 21,7 C 42 % 0 lf 1023,7 hPa 0,0 l/m 2 min 0 min 510 W/m 8,4 km/h (2 Bft) 97,83 %
21.05.2017 17:30 22,0 C 23,3 C 21,7 C 43 % 0 lf 1023,8 hPa 0,0 l/m 2 min 0 min 520 W/m 8,4 km/h (2 Bft) 95,74 %
21.05.2017 17:32 22,0 C 23,3 C 21,7 C 43 % 0 lf 1023,6 hPa 0,0 l/m 2 min 0 min 531 W/m 10,5 km/h (2 Bft) 95,74 %
21.05.2017 17:34 22,0 C 23,3 C 21,7 C 43 % 0 lf 1023,7 hPa 0,0 l/m 2 min 0 min 510 W/m 16,7 km/h (3 Bft) 97,87 %
21.05.2017 17:36 22,0 C 22,8 C 21,7 C 43 % 0 lf 1023,7 hPa 0,0 l/m 2 min 0 min 494 W/m 14,6 km/h (3 Bft) 97,87 %
21.05.2017 17:38 21,9 C 22,8 C 21,1 C 43 % 0 lf 1023,7 hPa 0,0 l/m 2 min 0 min 474 W/m 18,8 km/h (3 Bft) 97,87 %
21.05.2017 17:40 21,9 C 22,2 C 21,1 C 43 % 0 lf 1023,8 hPa 0,0 l/m 2 min 0 min 468 W/m 10,5 km/h (2 Bft) 97,83 %
21.05.2017 17:42 21,9 C 22,2 C 21,1 C 42 % 0 lf 1023,7 hPa 0,0 l/m 2 min 0 min 465 W/m 16,7 km/h (3 Bft) 95,74 %
21.05.2017 17:44 21,9 C 22,2 C 20,6 C 42 % 0 lf 1023,7 hPa 0,0 l/m 2 min 0 min 448 W/m 14,6 km/h (3 Bft) 95,74 %
21.05.2017 17:46 21,8 C 22,2 C 20,6 C 43 % 0 lf 1023,6 hPa 0,0 l/m 2 min 0 min 421 W/m 12,6 km/h (3 Bft) 95,74 %
21.05.2017 17:48 21,8 C 22,2 C 20,6 C 42 % 0 lf 1023,6 hPa 0,0 l/m 2 min 0 min 373 W/m 8,4 km/h (2 Bft) 97,87 %
21.05.2017 17:50 21,7 C 22,2 C 20,6 C 42 % 0 lf 1023,5 hPa 0,0 l/m 2 min 0 min 331 W/m 4,2 km/h (1 Bft) 97,87 %
21.05.2017 17:52 21,7 C 22,2 C 20,6 C 43 % 0 lf 1023,6 hPa 0,0 l/m 2 min 0 min 320 W/m 8,4 km/h (2 Bft) 100,00 %
21.05.2017 17:54 21,7 C 22,2 C 20,6 C 42 % 0 lf 1023,7 hPa 0,0 l/m 2 min 0 min 331 W/m 4,2 km/h (1 Bft) 97,87 %
21.05.2017 17:56 21,7 C 22,2 C 20,0 C 43 % 0 lf 1023,5 hPa 0,0 l/m 2 min 0 min 330 W/m 6,3 km/h (2 Bft) 95,74 %
21.05.2017 17:58 21,7 C 22,2 C 20,0 C 43 % 0 lf 1023,5 hPa 0,0 l/m 2 min 0 min 321 W/m 4,2 km/h (1 Bft) 95,74 %
21.05.2017 18:00 21,6 C 22,8 C 20,0 C 43 % 0 lf 1023,4 hPa 0,0 l/m 2 min 0 min 318 W/m 4,2 km/h (1 Bft) 96,00 %
21.05.2017 18:02 21,6 C 22,8 C 20,0 C 43 % 0 lf 1023,5 hPa 0,0 l/m 2 min 0 min 310 W/m 6,3 km/h (2 Bft) 97,96 %
21.05.2017 18:04 21,6 C 22,2 C 20,0 C 43 % 0 lf 1023,5 hPa 0,0 l/m 2 min 0 min 309 W/m 6,3 km/h (2 Bft) 97,87 %
21.05.2017 18:06 21,6 C 22,8 C 20,0 C 43 % 0 lf 1023,5 hPa 0,0 l/m 2 min 0 min 296 W/m 6,3 km/h (2 Bft) 96,00 %
21.05.2017 18:08 21,5 C 22,2 C 20,0 C 43 % 0 lf 1023,4 hPa 0,0 l/m 2 min 0 min 271 W/m 8,4 km/h (2 Bft) 95,74 %
21.05.2017 18:10 21,5 C 22,2 C 20,0 C 44 % 0 lf 1023,4 hPa 0,0 l/m 2 min 0 min 248 W/m 8,4 km/h (2 Bft) 95,74 %
21.05.2017 18:12 21,4 C 22,2 C 20,6 C 43 % 0 lf 1023,4 hPa 0,0 l/m 2 min 0 min 235 W/m 8,4 km/h (2 Bft) 97,83 %
21.05.2017 18:14 21,4 C 21,7 C 20,6 C 43 % 0 lf 1023,4 hPa 0,0 l/m 2 min 0 min 236 W/m 8,4 km/h (2 Bft) 95,74 %
21.05.2017 18:16 21,3 C 21,1 C 20,6 C 43 % 0 lf 1023,4 hPa 0,0 l/m 2 min 0 min 238 W/m 10,5 km/h (2 Bft) 97,87 %
21.05.2017 18:18 21,3 C 21,7 C 20,6 C 45 % 0 lf 1023,4 hPa 0,0 l/m 2 min 0 min 246 W/m 8,4 km/h (2 Bft) 97,87 %
21.05.2017 18:20 21,2 C 21,7 C 20,6 C 44 % 0 lf 1023,3 hPa 0,0 l/m 2 min 0 min 247 W/m 10,5 km/h (2 Bft) 95,74 %
21.05.2017 18:22 21,2 C 21,7 C 20,6 C 44 % 0 lf 1023,3 hPa 0,0 l/m 2 min 0 min 235 W/m 10,5 km/h (2 Bft) 91,49 %
21.05.2017 18:24 21,2 C 21,7 C 20,6 C 44 % 0 lf 1023,3 hPa 0,0 l/m 2 min 0 min 248 W/m 6,3 km/h (2 Bft) 97,83 %
21.05.2017 18:26 21,1 C 21,7 C 20,6 C 45 % 0 lf 1023,2 hPa 0,0 l/m 2 min 0 min 247 W/m 8,4 km/h (2 Bft) 97,87 %
21.05.2017 18:28 21,1 C 21,7 C 20,6 C 44 % 0 lf 1023,2 hPa 0,0 l/m 2 min 0 min 246 W/m 8,4 km/h (2 Bft) 97,87 %
21.05.2017 18:30 21,0 C 21,7 C 20,6 C 45 % 0 lf 1023,3 hPa 0,0 l/m 2 min 0 min 248 W/m 8,4 km/h (2 Bft) 97,87 %
21.05.2017 18:32 21,0 C 21,7 C 20,6 C 44 % 0 lf 1023,3 hPa 0,0 l/m 2 min 0 min 253 W/m 6,3 km/h (2 Bft) 97,87 %
21.05.2017 18:34 21,0 C 21,7 C 20,6 C 45 % 0 lf 1023,2 hPa 0,0 l/m 2 min 0 min 247 W/m 4,2 km/h (1 Bft) 97,87 %
21.05.2017 18:36 21,0 C 21,7 C 21,1 C 44 % 0 lf 1023,2 hPa 0,0 l/m 2 min 0 min 238 W/m 6,3 km/h (2 Bft) 97,14 %
21.05.2017 18:38 20,9 C 21,7 C 21,1 C 44 % 0 lf 1023,2 hPa 0,0 l/m 2 min 0 min 231 W/m 6,3 km/h (2 Bft) 97,87 %
21.05.2017 18:40 20,9 C 22,2 C 20,6 C 45 % 0 lf 1023,2 hPa 0,0 l/m 2 min 0 min 228 W/m 6,3 km/h (2 Bft) 95,65 %
21.05.2017 18:42 20,9 C 21,7 C 21,1 C 46 % 0 lf 1023,2 hPa 0,0 l/m 2 min 0 min 222 W/m 6,3 km/h (2 Bft) 94,44 %
21.05.2017 18:44 20,9 C 21,1 C 20,6 C 44 % 0 lf 1023,1 hPa 0,0 l/m 2 min 0 min 220 W/m 10,5 km/h (2 Bft) 97,87 %
21.05.2017 18:46 20,9 C 21,1 C 20,6 C 45 % 0 lf 1023,1 hPa 0,0 l/m 2 min 0 min 219 W/m 10,5 km/h (2 Bft) 95,65 %
21.05.2017 18:48 20,8 C 21,1 C 20,6 C 45 % 0 lf 1023,1 hPa 0,0 l/m 2 min 0 min 219 W/m 12,6 km/h (3 Bft) 97,87 %
21.05.2017 18:50 20,8 C 21,1 C 20,6 C 45 % 0 lf 1023,1 hPa 0,0 l/m 2 min 0 min 218 W/m 6,3 km/h (2 Bft) 96,08 %
21.05.2017 18:52 20,8 C 21,1 C 20,6 C 44 % 0 lf 1023,0 hPa 0,0 l/m 2 min 0 min 214 W/m 6,3 km/h (2 Bft) 93,75 %
21.05.2017 18:54 20,8 C 21,1 C 20,6 C 45 % 0 lf 1023,0 hPa 0,0 l/m 2 min 0 min 210 W/m 8,4 km/h (2 Bft) 93,62 %
21.05.2017 18:56 20,7 C 21,1 C 20,6 C 45 % 0 lf 1023,1 hPa 0,0 l/m 2 min 0 min 211 W/m 6,3 km/h (2 Bft) 93,62 %
21.05.2017 18:58 20,7 C 21,1 C 20,0 C 44 % 0 lf 1023,0 hPa 0,0 l/m 2 min 0 min 208 W/m 6,3 km/h (2 Bft) 93,62 %
21.05.2017 19:00 20,7 C 21,1 C 20,0 C 44 % 0 lf 1023,0 hPa 0,0 l/m 2 min 0 min 206 W/m 6,3 km/h (2 Bft) 97,96 %
21.05.2017 19:02 20,7 C 21,1 C 20,0 C 45 % 0 lf 1023,0 hPa 0,0 l/m 2 min 0 min 202 W/m 8,4 km/h (2 Bft) 97,87 %
21.05.2017 19:04 20,7 C 21,1 C 20,0 C 45 % 0 lf 1023,0 hPa 0,0 l/m 2 min 0 min 199 W/m 6,3 km/h (2 Bft) 93,62 %
21.05.2017 19:06 20,6 C 20,6 C 20,0 C 45 % 0 lf 1023,0 hPa 0,0 l/m 2 min 0 min 194 W/m 6,3 km/h (2 Bft) 97,14 %
21.05.2017 19:08 20,6 C 21,1 C 19,4 C 44 % 0 lf 1023,0 hPa 0,0 l/m 2 min 0 min 192 W/m 4,2 km/h (1 Bft) 97,87 %
21.05.2017 19:10 20,6 C 21,1 C 19,4 C 44 % 0 lf 1023,0 hPa 0,0 l/m 2 min 0 min 191 W/m 6,3 km/h (2 Bft) 97,87 %
21.05.2017 19:12 20,6 C 21,1 C 19,4 C 44 % 0 lf 1022,9 hPa 0,0 l/m 2 min 0 min 189 W/m 4,2 km/h (1 Bft) 95,74 %
21.05.2017 19:14 20,6 C 21,1 C 19,4 C 45 % 0 lf 1022,9 hPa 0,0 l/m 2 min 0 min 189 W/m 4,2 km/h (1 Bft) 95,65 %
21.05.2017 19:16 20,5 C 21,1 C 19,4 C 45 % 0 lf 1022,9 hPa 0,0 l/m 2 min 0 min 187 W/m 4,2 km/h (1 Bft) 95,74 %
21.05.2017 19:18 20,5 C 21,1 C 19,4 C 45 % 0 lf 1022,9 hPa 0,0 l/m 2 min 0 min 184 W/m 4,2 km/h (1 Bft) 93,62 %
21.05.2017 19:20 20,5 C 21,1 C 19,4 C 45 % 0 lf 1022,9 hPa 0,0 l/m 2 min 0 min 184 W/m 4,2 km/h (1 Bft) 95,74 %
21.05.2017 19:22 20,5 C 21,1 C 19,4 C 45 % 0 lf 1022,9 hPa 0,0 l/m 2 min 0 min 185 W/m 2,1 km/h (1 Bft) 95,74 %
21.05.2017 19:24 20,4 C 20,6 C 18,9 C 46 % 0 lf 1022,9 hPa 0,0 l/m 2 min 0 min 186 W/m 2,1 km/h (1 Bft) 97,87 %
21.05.2017 19:26 20,4 C 20,6 C 18,9 C 45 % 0 lf 1022,8 hPa 0,0 l/m 2 min 0 min 188 W/m 4,2 km/h (1 Bft) 93,48 %
21.05.2017 19:28 20,4 C 20,6 C 18,9 C 45 % 0 lf 1022,9 hPa 0,0 l/m 2 min 0 min 183 W/m 6,3 km/h (2 Bft) 97,87 %
21.05.2017 19:30 20,4 C 20,6 C 18,9 C 45 % 0 lf 1022,8 hPa 0,0 l/m 2 min 0 min 172 W/m 4,2 km/h (1 Bft) 95,74 %
21.05.2017 19:32 20,3 C 20,6 C 18,3 C 45 % 0 lf 1022,8 hPa 0,0 l/m 2 min 0 min 165 W/m 2,1 km/h (1 Bft) 94,34 %
21.05.2017 19:34 20,3 C 20,6 C 18,3 C 45 % 0 lf 1022,8 hPa 0,0 l/m 2 min 0 min 167 W/m 2,1 km/h (1 Bft) 97,87 %
21.05.2017 19:36 20,3 C 20,6 C 18,3 C 45 % 0 lf 1022,8 hPa 0,0 l/m 2 min 0 min 169 W/m 2,1 km/h (1 Bft) 96,00 %
21.05.2017 19:38 20,3 C 20,6 C 18,3 C 45 % 0 lf 1022,8 hPa 0,0 l/m 2 min 0 min 172 W/m 2,1 km/h (1 Bft) 95,74 %
21.05.2017 19:40 20,3 C 20,6 C 18,3 C 46 % 0 lf 1022,8 hPa 0,0 l/m 2 min 0 min 173 W/m 2,1 km/h (1 Bft) 93,62 %
21.05.2017 19:42 20,3 C 20,6 C 18,3 C 46 % 0 lf 1022,8 hPa 0,0 l/m 2 min 0 min 170 W/m 4,2 km/h (1 Bft) 91,49 %
21.05.2017 19:44 20,3 C 20,6 C 17,8 C 46 % 0 lf 1022,8 hPa 0,0 l/m 2 min 0 min 157 W/m 6,3 km/h (2 Bft) 93,62 %
21.05.2017 19:46 20,2 C 20,0 C 17,8 C 48 % 0 lf 1022,8 hPa 0,0 l/m 2 min 0 min 137 W/m 4,2 km/h (1 Bft) 87,23 %
21.05.2017 19:48 20,2 C 20,0 C 17,8 C 47 % 0 lf 1022,8 hPa 0,0 l/m 2 min 0 min 129 W/m 4,2 km/h (1 Bft) 93,62 %
21.05.2017 19:50 20,2 C 20,0 C 17,8 C 45 % 0 lf 1022,8 hPa 0,0 l/m 2 min 0 min 123 W/m 4,2 km/h (1 Bft) 93,62 %
21.05.2017 19:52 20,2 C 20,0 C 17,8 C 46 % 0 lf 1022,8 hPa 0,0 l/m 2 min 0 min 116 W/m 2,1 km/h (1 Bft) 93,62 %
21.05.2017 19:54 20,2 C 20,0 C 17,8 C 46 % 0 lf 1022,8 hPa 0,0 l/m 2 min 0 min 109 W/m 4,2 km/h (1 Bft) 95,65 %
21.05.2017 19:56 20,1 C 20,0 C 17,8 C 47 % 0 lf 1022,8 hPa 0,0 l/m 0 min 0 min 98 W/m 4,2 km/h (1 Bft) 91,49 %
21.05.2017 19:58 20,1 C 20,0 C 17,8 C 46 % 0 lf 1022,8 hPa 0,0 l/m 2 min 0 min 98 W/m 4,2 km/h (1 Bft) 95,74 %
21.05.2017 20:00 20,1 C 20,0 C 17,2 C 46 % 0 lf 1022,8 hPa 0,0 l/m 2 min 0 min 121 W/m 2,1 km/h (1 Bft) 93,62 %
21.05.2017 20:02 20,1 C 19,4 C 17,2 C 46 % 0 lf 1022,8 hPa 0,0 l/m 2 min 0 min 158 W/m 4,2 km/h (1 Bft) 90,48 %
21.05.2017 20:04 20,1 C 19,4 C 17,2 C 47 % 0 lf 1022,8 hPa 0,0 l/m 2 min 0 min 158 W/m 4,2 km/h (1 Bft) 94,00 %
21.05.2017 20:06 20,0 C 19,4 C 17,2 C 46 % 0 lf 1022,7 hPa 0,0 l/m 2 min 0 min 145 W/m 4,2 km/h (1 Bft) 89,36 %
21.05.2017 20:08 20,0 C 19,4 C 17,2 C 47 % 0 lf 1022,7 hPa 0,0 l/m 2 min 0 min 131 W/m 0,0 km/h (0 Bft) 95,74 %
21.05.2017 20:10 19,9 C 19,4 C 17,2 C 48 % 0 lf 1022,7 hPa 0,0 l/m 2 min 0 min 121 W/m 0,0 km/h (0 Bft) 95,65 %
21.05.2017 20:12 19,9 C 19,4 C 16,7 C 48 % 0 lf 1022,7 hPa 0,0 l/m 2 min 0 min 109 W/m 0,0 km/h (0 Bft) 95,74 %
21.05.2017 20:14 19,9 C 19,4 C 16,7 C 49 % 0 lf 1022,7 hPa 0,0 l/m 2 min 0 min 101 W/m 0,0 km/h (0 Bft) 93,62 %
21.05.2017 20:16 19,9 C 19,4 C 16,7 C 49 % 0 lf 1022,7 hPa 0,0 l/m 2 min 0 min 102 W/m 0,0 km/h (0 Bft) 97,87 %
21.05.2017 20:18 19,9 C 18,9 C 16,7 C 49 % 0 lf 1022,6 hPa 0,0 l/m 2 min 0 min 104 W/m 0,0 km/h (0 Bft) 97,87 %
21.05.2017 20:20 19,8 C 18,9 C 16,7 C 49 % 0 lf 1022,7 hPa 0,0 l/m 2 min 0 min 103 W/m 0,0 km/h (0 Bft) 91,49 %
21.05.2017 20:22 19,8 C 18,9 C 16,7 C 50 % 0 lf 1022,6 hPa 0,0 l/m 2 min 0 min 98 W/m 4,2 km/h (1 Bft) 97,83 %
21.05.2017 20:24 19,8 C 18,9 C 16,1 C 50 % 0 lf 1022,6 hPa 0,0 l/m 2 min 0 min 103 W/m 2,1 km/h (1 Bft) 97,87 %
21.05.2017 20:26 19,7 C 18,9 C 16,1 C 50 % 0 lf 1022,6 hPa 0,0 l/m 2 min 0 min 101 W/m 0,0 km/h (0 Bft) 95,74 %
21.05.2017 20:28 19,7 C 18,9 C 16,1 C 50 % 0 lf 1022,6 hPa 0,0 l/m 2 min 0 min 98 W/m 0,0 km/h (0 Bft) 97,87 %
21.05.2017 20:30 19,7 C 18,9 C 16,1 C 50 % 0 lf 1022,5 hPa 0,0 l/m 2 min 0 min 101 W/m 0,0 km/h (0 Bft) 97,87 %
21.05.2017 20:32 19,7 C 18,3 C 15,6 C 51 % 0 lf 1022,5 hPa 0,0 l/m 2 min 0 min 104 W/m 0,0 km/h (0 Bft) 100,00 %
21.05.2017 20:34 19,6 C 18,3 C 15,6 C 52 % 0 lf 1022,5 hPa 0,0 l/m 2 min 0 min 98 W/m 0,0 km/h (0 Bft) 97,87 %
21.05.2017 20:36 19,6 C 18,3 C 15,6 C 52 % 0 lf 1022,5 hPa 0,0 l/m 2 min 0 min 87 W/m 2,1 km/h (1 Bft) 98,18 %
21.05.2017 20:38 19,5 C 18,3 C 15,6 C 52 % 0 lf 1022,5 hPa 0,0 l/m 2 min 0 min 81 W/m 2,1 km/h (1 Bft) 100,00 %
21.05.2017 20:40 19,5 C 18,3 C 15,6 C 52 % 0 lf 1022,5 hPa 0,0 l/m 2 min 0 min 80 W/m 6,3 km/h (2 Bft) 97,87 %
21.05.2017 20:42 19,4 C 18,3 C 15,6 C 51 % 0 lf 1022,4 hPa 0,0 l/m 2 min 0 min 81 W/m 6,3 km/h (2 Bft) 95,65 %
21.05.2017 20:44 19,4 C 18,3 C 16,1 C 52 % 0 lf 1022,4 hPa 0,0 l/m 2 min 0 min 77 W/m 8,4 km/h (2 Bft) 97,87 %
21.05.2017 20:46 19,3 C 18,3 C 16,7 C 52 % 0 lf 1022,4 hPa 0,0 l/m 2 min 0 min 73 W/m 10,5 km/h (2 Bft) 100,00 %
21.05.2017 20:48 19,3 C 18,3 C 16,7 C 52 % 0 lf 1022,4 hPa 0,0 l/m 2 min 0 min 69 W/m 8,4 km/h (2 Bft) 97,87 %
21.05.2017 20:50 19,2 C 18,3 C 16,7 C 52 % 0 lf 1022,4 hPa 0,0 l/m 2 min 0 min 65 W/m 6,3 km/h (2 Bft) 100,00 %
21.05.2017 20:52 19,2 C 18,3 C 16,7 C 52 % 0 lf 1022,4 hPa 0,0 l/m 2 min 0 min 60 W/m 6,3 km/h (2 Bft) 97,87 %
21.05.2017 20:54 19,1 C 18,3 C 16,7 C 53 % 0 lf 1022,3 hPa 0,0 l/m 2 min 0 min 52 W/m 6,3 km/h (2 Bft) 95,65 %
21.05.2017 20:56 19,1 C 18,3 C 16,7 C 53 % 0 lf 1022,2 hPa 0,0 l/m 2 min 0 min 49 W/m 6,3 km/h (2 Bft) 97,87 %
21.05.2017 20:58 19,1 C 18,3 C 16,7 C 53 % 0 lf 1022,2 hPa 0,0 l/m 2 min 0 min 46 W/m 4,2 km/h (1 Bft) 95,74 %
21.05.2017 21:00 19,0 C 18,3 C 16,1 C 53 % 0 lf 1022,2 hPa 0,0 l/m 2 min 0 min 43 W/m 6,3 km/h (2 Bft) 97,56 %
21.05.2017 21:02 19,0 C 17,8 C 16,1 C 53 % 0 lf 1022,2 hPa 0,0 l/m 2 min 0 min 39 W/m 6,3 km/h (2 Bft) 96,30 %
21.05.2017 21:04 18,9 C 17,8 C 16,1 C 53 % 0 lf 1022,2 hPa 0,0 l/m 2 min 0 min 37 W/m 6,3 km/h (2 Bft) 97,67 %
21.05.2017 21:06 18,9 C 17,8 C 16,1 C 54 % 0 lf 1022,2 hPa 0,0 l/m 2 min 0 min 34 W/m 8,4 km/h (2 Bft) 97,87 %
21.05.2017 21:08 18,9 C 17,8 C 16,1 C 54 % 0 lf 1022,2 hPa 0,0 l/m 2 min 0 min 32 W/m 10,5 km/h (2 Bft) 97,87 %
21.05.2017 21:10 18,8 C 17,8 C 16,1 C 55 % 0 lf 1022,2 hPa 0,0 l/m 2 min 0 min 30 W/m 10,5 km/h (2 Bft) 97,83 %
21.05.2017 21:12 18,8 C 17,8 C 16,1 C 54 % 0 lf 1022,2 hPa 0,0 l/m 2 min 0 min 27 W/m 6,3 km/h (2 Bft) 95,74 %
21.05.2017 21:14 18,8 C 17,8 C 16,1 C 55 % 0 lf 1022,1 hPa 0,0 l/m 0 min 0 min 16 W/m 8,4 km/h (2 Bft) 97,87 %
21.05.2017 21:16 18,7 C 17,8 C 15,6 C 55 % 0 lf 1022,2 hPa 0,0 l/m 0 min 0 min 11 W/m 8,4 km/h (2 Bft) 95,74 %
21.05.2017 21:18 18,7 C 17,8 C 15,6 C 55 % 0 lf 1022,2 hPa 0,0 l/m 0 min 0 min 19 W/m 6,3 km/h (2 Bft) 97,87 %
21.05.2017 21:20 18,7 C 17,2 C 15,6 C 55 % 0 lf 1022,2 hPa 0,0 l/m 0 min 0 min 17 W/m 8,4 km/h (2 Bft) 95,74 %
21.05.2017 21:22 18,6 C 17,2 C 15,6 C 55 % 0 lf 1022,2 hPa 0,0 l/m 0 min 0 min 16 W/m 6,3 km/h (2 Bft) 97,83 %
21.05.2017 21:24 18,6 C 17,2 C 15,6 C 56 % 0 lf 1022,2 hPa 0,0 l/m 0 min 0 min 14 W/m 6,3 km/h (2 Bft) 95,74 %
21.05.2017 21:26 18,5 C 17,2 C 15,0 C 56 % 0 lf 1022,2 hPa 0,0 l/m 0 min 0 min 13 W/m 6,3 km/h (2 Bft) 95,74 %
21.05.2017 21:28 18,5 C 17,2 C 15,0 C 56 % 0 lf 1022,1 hPa 0,0 l/m 0 min 0 min 10 W/m 6,3 km/h (2 Bft) 95,74 %
21.05.2017 21:30 18,4 C 16,7 C 15,0 C 56 % 0 lf 1022,1 hPa 0,0 l/m 0 min 0 min 9 W/m 6,3 km/h (2 Bft) 97,87 %
21.05.2017 21:32 18,4 C 16,7 C 14,4 C 56 % 0 lf 1022,2 hPa 0,0 l/m 0 min 0 min 8 W/m 4,2 km/h (1 Bft) 93,48 %
21.05.2017 21:34 18,4 C 16,7 C 14,4 C 56 % 0 lf 1022,1 hPa 0,0 l/m 0 min 0 min 2 W/m 4,2 km/h (1 Bft) 97,87 %
21.05.2017 21:36 18,3 C 16,1 C 13,9 C 57 % 0 lf 1022,1 hPa 0,0 l/m 0 min 0 min 0 W/m 4,2 km/h (1 Bft) 95,74 %
21.05.2017 21:38 18,3 C 16,1 C 13,9 C 57 % 0 lf 1022,1 hPa 0,0 l/m 0 min 0 min 0 W/m 4,2 km/h (1 Bft) 97,87 %
21.05.2017 21:40 18,2 C 16,1 C 13,3 C 57 % 0 lf 1022,1 hPa 0,0 l/m 0 min 0 min 0 W/m 4,2 km/h (1 Bft) 95,74 %
21.05.2017 21:42 18,2 C 16,1 C 13,3 C 58 % 0 lf 1022,2 hPa 0,0 l/m 0 min 0 min 0 W/m 4,2 km/h (1 Bft) 94,34 %
21.05.2017 21:44 18,1 C 15,6 C 13,3 C 58 % 0 lf 1022,1 hPa 0,0 l/m 0 min 0 min 0 W/m 4,2 km/h (1 Bft) 95,74 %
21.05.2017 21:46 18,1 C 15,6 C 12,8 C 58 % 0 lf 1022,1 hPa 0,0 l/m 0 min 0 min 0 W/m 6,3 km/h (2 Bft) 91,49 %
21.05.2017 21:48 18,0 C 15,6 C 12,8 C 59 % 0 lf 1022,1 hPa 0,0 l/m 0 min 0 min 0 W/m 4,2 km/h (1 Bft) 95,74 %
21.05.2017 21:50 17,9 C 15,0 C 12,8 C 59 % 0 lf 1022,1 hPa 0,0 l/m 0 min 0 min 0 W/m 4,2 km/h (1 Bft) 100,00 %
21.05.2017 21:52 17,8 C 15,0 C 12,2 C 59 % 0 lf 1022,1 hPa 0,0 l/m 0 min 0 min 0 W/m 6,3 km/h (2 Bft) 95,65 %
21.05.2017 21:54 17,7 C 15,0 C 12,2 C 60 % 0 lf 1022,1 hPa 0,0 l/m 0 min 0 min 0 W/m 4,2 km/h (1 Bft) 96,00 %
21.05.2017 21:56 17,7 C 15,0 C 12,2 C 60 % 0 lf 1022,1 hPa 0,0 l/m 0 min 0 min 0 W/m 4,2 km/h (1 Bft) 97,87 %
21.05.2017 21:58 17,6 C 15,0 C 12,2 C 61 % 0 lf 1022,1 hPa 0,0 l/m 0 min 0 min 0 W/m 4,2 km/h (1 Bft) 95,74 %
21.05.2017 22:00 17,5 C 14,4 C 12,2 C 61 % 0 lf 1022,2 hPa 0,0 l/m 0 min 0 min 0 W/m 4,2 km/h (1 Bft) 97,87 %
21.05.2017 22:02 17,4 C 14,4 C 12,2 C 61 % 0 lf 1022,1 hPa 0,0 l/m 0 min 0 min 0 W/m 4,2 km/h (1 Bft) 97,67 %
21.05.2017 22:04 17,3 C 14,4 C 12,2 C 61 % 0 lf 1022,1 hPa 0,0 l/m 0 min 0 min 0 W/m 4,2 km/h (1 Bft) 95,74 %
21.05.2017 22:06 17,2 C 14,4 C 11,7 C 62 % 0 lf 1022,1 hPa 0,0 l/m 0 min 0 min 0 W/m 4,2 km/h (1 Bft) 95,24 %
21.05.2017 22:08 17,1 C 14,4 C 11,7 C 62 % 0 lf 1022,1 hPa 0,0 l/m 0 min 0 min 0 W/m 4,2 km/h (1 Bft) 97,87 %
21.05.2017 22:10 17,1 C 14,4 C 11,7 C 63 % 0 lf 1022,1 hPa 0,0 l/m 0 min 0 min 0 W/m 4,2 km/h (1 Bft) 97,87 %
21.05.2017 22:12 16,9 C 14,4 C 11,7 C 63 % 0 lf 1022,1 hPa 0,0 l/m 0 min 0 min 0 W/m 4,2 km/h (1 Bft) 95,74 %
21.05.2017 22:14 16,9 C 14,4 C 11,7 C 63 % 0 lf 1022,0 hPa 0,0 l/m 0 min 0 min 0 W/m 6,3 km/h (2 Bft) 93,62 %
21.05.2017 22:16 16,8 C 14,4 C 11,7 C 64 % 0 lf 1022,0 hPa 0,0 l/m 0 min 0 min 0 W/m 4,2 km/h (1 Bft) 95,65 %
21.05.2017 22:18 16,7 C 13,9 C 11,7 C 64 % 0 lf 1022,0 hPa 0,0 l/m 0 min 0 min 0 W/m 6,3 km/h (2 Bft) 100,00 %
21.05.2017 22:20 16,6 C 13,9 C 11,7 C 64 % 0 lf 1022,0 hPa 0,0 l/m 0 min 0 min 0 W/m 8,4 km/h (2 Bft) 100,00 %
21.05.2017 22:22 16,5 C 13,9 C 11,7 C 64 % 0 lf 1022,0 hPa 0,0 l/m 0 min 0 min 0 W/m 6,3 km/h (2 Bft) 95,74 %
21.05.2017 22:24 16,4 C 13,9 C 11,7 C 64 % 0 lf 1022,0 hPa 0,0 l/m 0 min 0 min 0 W/m 4,2 km/h (1 Bft) 100,00 %
21.05.2017 22:26 16,4 C 13,9 C 11,7 C 64 % 0 lf 1022,0 hPa 0,0 l/m 0 min 0 min 0 W/m 4,2 km/h (1 Bft) 97,87 %
21.05.2017 22:28 16,3 C 13,9 C 11,7 C 64 % 0 lf 1022,1 hPa 0,0 l/m 0 min 0 min 0 W/m 4,2 km/h (1 Bft) 97,83 %
21.05.2017 22:30 16,2 C 13,9 C 11,7 C 64 % 0 lf 1022,1 hPa 0,0 l/m 0 min 0 min 0 W/m 4,2 km/h (1 Bft) 97,87 %
21.05.2017 22:32 16,2 C 13,9 C 11,7 C 65 % 0 lf 1022,1 hPa 0,0 l/m 0 min 0 min 0 W/m 4,2 km/h (1 Bft) 93,75 %
21.05.2017 22:34 16,1 C 13,9 C 11,7 C 65 % 0 lf 1022,0 hPa 0,0 l/m 0 min 0 min 0 W/m 4,2 km/h (1 Bft) 93,62 %
21.05.2017 22:36 16,1 C 13,9 C 11,7 C 66 % 0 lf 1022,0 hPa 0,0 l/m 0 min 0 min 0 W/m 4,2 km/h (1 Bft) 90,00 %
21.05.2017 22:38 16,0 C 13,9 C 11,1 C 66 % 0 lf 1022,1 hPa 0,0 l/m 0 min 0 min 0 W/m 4,2 km/h (1 Bft) 95,65 %
21.05.2017 22:40 15,9 C 13,9 C 11,7 C 66 % 0 lf 1022,0 hPa 0,0 l/m 0 min 0 min 0 W/m 6,3 km/h (2 Bft) 93,62 %
21.05.2017 22:42 15,9 C 13,9 C 11,7 C 66 % 0 lf 1022,0 hPa 0,0 l/m 0 min 0 min 0 W/m 6,3 km/h (2 Bft) 95,74 %
21.05.2017 22:44 15,8 C 13,9 C 11,7 C 66 % 0 lf 1022,0 hPa 0,0 l/m 0 min 0 min 0 W/m 6,3 km/h (2 Bft) 93,62 %
21.05.2017 22:46 15,8 C 13,9 C 11,7 C 66 % 0 lf 1021,9 hPa 0,0 l/m 0 min 0 min 0 W/m 6,3 km/h (2 Bft) 89,36 %
21.05.2017 22:48 15,7 C 13,9 C 11,7 C 67 % 0 lf 1022,0 hPa 0,0 l/m 0 min 0 min 0 W/m 6,3 km/h (2 Bft) 95,74 %
21.05.2017 22:50 15,7 C 13,9 C 11,7 C 67 % 0 lf 1021,9 hPa 0,0 l/m 0 min 0 min 0 W/m 6,3 km/h (2 Bft) 95,65 %
21.05.2017 22:52 15,6 C 13,9 C 11,7 C 67 % 0 lf 1021,9 hPa 0,0 l/m 0 min 0 min 0 W/m 6,3 km/h (2 Bft) 93,62 %
21.05.2017 22:54 15,6 C 13,9 C 11,7 C 67 % 0 lf 1022,0 hPa 0,0 l/m 0 min 0 min 0 W/m 6,3 km/h (2 Bft) 93,62 %
21.05.2017 22:56 15,5 C 13,9 C 11,7 C 67 % 0 lf 1022,0 hPa 0,0 l/m 0 min 0 min 0 W/m 6,3 km/h (2 Bft) 95,74 %
21.05.2017 22:58 15,4 C 13,9 C 11,7 C 67 % 0 lf 1022,0 hPa 0,0 l/m 0 min 0 min 0 W/m 6,3 km/h (2 Bft) 93,62 %
21.05.2017 23:00 15,4 C 13,9 C 11,7 C 67 % 0 lf 1022,0 hPa 0,0 l/m 0 min 0 min 0 W/m 4,2 km/h (1 Bft) 95,12 %
21.05.2017 23:03 15,4 C 13,9 C 11,1 C 67 % 0 lf 1021,9 hPa 0,0 l/m 0 min 0 min 0 W/m 4,2 km/h (1 Bft) 94,52 %
21.05.2017 23:04 15,3 C 13,9 C 11,1 C 68 % 0 lf 1021,9 hPa 0,0 l/m 0 min 0 min 0 W/m 4,2 km/h (1 Bft) 87,50 %
21.05.2017 23:06 15,3 C 13,3 C 11,1 C 67 % 0 lf 1021,9 hPa 0,0 l/m 0 min 0 min 0 W/m 6,3 km/h (2 Bft) 95,35 %
21.05.2017 23:08 15,3 C 13,3 C 11,1 C 68 % 0 lf 1022,0 hPa 0,0 l/m 0 min 0 min 0 W/m 6,3 km/h (2 Bft) 94,00 %
21.05.2017 23:10 15,2 C 13,3 C 11,1 C 68 % 0 lf 1021,9 hPa 0,0 l/m 0 min 0 min 0 W/m 6,3 km/h (2 Bft) 95,74 %
21.05.2017 23:12 15,2 C 13,3 C 11,1 C 68 % 0 lf 1021,9 hPa 0,0 l/m 0 min 0 min 0 W/m 4,2 km/h (1 Bft) 95,83 %
21.05.2017 23:14 15,2 C 13,3 C 11,1 C 68 % 0 lf 1021,9 hPa 0,0 l/m 0 min 0 min 0 W/m 4,2 km/h (1 Bft) 91,30 %
21.05.2017 23:16 15,1 C 13,3 C 11,1 C 68 % 0 lf 1021,9 hPa 0,0 l/m 0 min 0 min 0 W/m 4,2 km/h (1 Bft) 95,74 %
21.05.2017 23:18 15,1 C 13,3 C 11,1 C 68 % 0 lf 1021,9 hPa 0,0 l/m 0 min 0 min 0 W/m 4,2 km/h (1 Bft) 93,62 %
21.05.2017 23:20 15,0 C 13,3 C 11,1 C 69 % 0 lf 1021,9 hPa 0,0 l/m 0 min 0 min 0 W/m 6,3 km/h (2 Bft) 95,74 %
21.05.2017 23:22 15,0 C 13,3 C 11,1 C 69 % 0 lf 1021,9 hPa 0,0 l/m 0 min 0 min 0 W/m 6,3 km/h (2 Bft) 91,49 %
21.05.2017 23:24 14,9 C 13,3 C 11,1 C 69 % 0 lf 1021,9 hPa 0,0 l/m 0 min 0 min 0 W/m 4,2 km/h (1 Bft) 97,87 %
21.05.2017 23:26 14,9 C 12,8 C 10,6 C 69 % 0 lf 1021,9 hPa 0,0 l/m 0 min 0 min 0 W/m 4,2 km/h (1 Bft) 93,48 %
21.05.2017 23:28 14,9 C 12,8 C 10,6 C 69 % 0 lf 1021,9 hPa 0,0 l/m 0 min 0 min 0 W/m 4,2 km/h (1 Bft) 97,87 %
21.05.2017 23:30 14,8 C 12,8 C 10,6 C 69 % 0 lf 1021,9 hPa 0,0 l/m 0 min 0 min 0 W/m 4,2 km/h (1 Bft) 97,87 %
21.05.2017 23:32 14,8 C 12,8 C 10,6 C 69 % 0 lf 1021,9 hPa 0,0 l/m 0 min 0 min 0 W/m 2,1 km/h (1 Bft) 97,92 %
21.05.2017 23:34 14,8 C 12,8 C 10,6 C 69 % 0 lf 1021,9 hPa 0,0 l/m 0 min 0 min 0 W/m 4,2 km/h (1 Bft) 100,00 %
21.05.2017 23:36 14,7 C 12,8 C 10,6 C 69 % 0 lf 1021,9 hPa 0,0 l/m 0 min 0 min 0 W/m 4,2 km/h (1 Bft) 97,87 %
21.05.2017 23:38 14,7 C 12,8 C 10,6 C 69 % 0 lf 1021,9 hPa 0,0 l/m 0 min 0 min 0 W/m 4,2 km/h (1 Bft) 95,65 %
21.05.2017 23:40 14,7 C 12,8 C 10,6 C 69 % 0 lf 1021,9 hPa 0,0 l/m 0 min 0 min 0 W/m 4,2 km/h (1 Bft) 97,87 %
21.05.2017 23:42 14,6 C 12,8 C 10,6 C 69 % 0 lf 1021,8 hPa 0,0 l/m 0 min 0 min 0 W/m 6,3 km/h (2 Bft) 97,92 %
21.05.2017 23:44 14,6 C 12,8 C 10,6 C 70 % 0 lf 1021,8 hPa 0,0 l/m 0 min 0 min 0 W/m 6,3 km/h (2 Bft) 95,74 %
21.05.2017 23:46 14,5 C 12,8 C 10,6 C 70 % 0 lf 1021,8 hPa 0,0 l/m 0 min 0 min 0 W/m 6,3 km/h (2 Bft) 97,87 %
21.05.2017 23:48 14,4 C 12,2 C 10,6 C 70 % 0 lf 1021,8 hPa 0,0 l/m 0 min 0 min 0 W/m 6,3 km/h (2 Bft) 95,65 %
21.05.2017 23:50 14,4 C 12,2 C 10,6 C 70 % 0 lf 1021,8 hPa 0,0 l/m 0 min 0 min 0 W/m 4,2 km/h (1 Bft) 95,74 %
21.05.2017 23:52 14,3 C 12,2 C 10,6 C 70 % 0 lf 1021,8 hPa 0,0 l/m 0 min 0 min 0 W/m 4,2 km/h (1 Bft) 93,62 %
21.05.2017 23:54 14,3 C 12,2 C 10,6 C 71 % 0 lf 1021,7 hPa 0,0 l/m 0 min 0 min 0 W/m 4,2 km/h (1 Bft) 95,74 %
21.05.2017 23:56 14,2 C 12,2 C 10,6 C 71 % 0 lf 1021,8 hPa 0,0 l/m 0 min 0 min 0 W/m 4,2 km/h (1 Bft) 93,62 %
21.05.2017 23:58 14,2 C 12,2 C 10,6 C 71 % 0 lf 1021,8 hPa 0,0 l/m 0 min 0 min 0 W/m 4,2 km/h (1 Bft) 93,62 %
_ Min-Zeit 05:50 05:28 04:56 17:04 00:00 23:54 - - - - 01:42 15:48
Minimum _ 7,6 C 6,7 C 5,6 C 42 % 0 lf 1021,7 hPa - - - - 0,0 km/h (0 Bft) 85,11 %
_ Max-Zeit 17:04 11:36 11:48 07:56 06:14 09:34 00:00 14:58 00:00 11:50 12:54 00:06
Maximum _ 22,0 C 30,6 C 28,3 C 96 % 14 lf 1026,8 hPa 0,0 l/m 4 min 0 min 803 W/m 23,0 km/h
N (4 Bft)
100,00 %
Durchschnitt _ 15,7 C 17,4 C 15,3 C 68 % 1 lf 1024,8 hPa #0,0 l/m #13:36 h #0 min. 381 W/m 6,8 km/h (2 Bft) 96,07 %
© 2017 W. Hausmann